<gpx creator="Cyclotour.ca" version="1.1" xmlns:gpsies="http://www.gpsies.com/GPX/1/0" xmlns:xsi="http://www.w3.org/2001/XMLSchema-instance" xmlns="http://www.topografix.com/GPX/1/1" xsi:schemaLocation="http://www.topografix.com/GPX/1/1 http://www.topografix.com/GPX/1/1/gpx.xsd http://www.gpsies.com/GPX/1/0 http://www.gpsies.com/gpsies.xsd">
<trk>
<name>Bécancour/Parisville/Sainte-Cécile de Lévrard 2022</name>
<trkseg>
<trkpt lat="46.348570000" lon="-72.434830000">
<ele>0</ele>
<time>2026-09-04T06:33:44Z</time>
</trkpt>
<trkpt lat="46.348690000" lon="-72.435540000">
<ele>0</ele>
<time>2026-09-04T06:33:45Z</time>
</trkpt>
<trkpt lat="46.348770000" lon="-72.435850000">
<ele>0</ele>
<time>2026-09-04T06:33:46Z</time>
</trkpt>
<trkpt lat="46.348930000" lon="-72.436250000">
<ele>0</ele>
<time>2026-09-04T06:33:47Z</time>
</trkpt>
<trkpt lat="46.348690000" lon="-72.436350000">
<ele>0</ele>
<time>2026-09-04T06:33:48Z</time>
</trkpt>
<trkpt lat="46.348690000" lon="-72.436350000">
<ele>0</ele>
<time>2026-09-04T06:33:49Z</time>
</trkpt>
<trkpt lat="46.346830000" lon="-72.436950000">
<ele>0</ele>
<time>2026-09-04T06:33:50Z</time>
</trkpt>
<trkpt lat="46.346110000" lon="-72.437170000">
<ele>0</ele>
<time>2026-09-04T06:33:51Z</time>
</trkpt>
<trkpt lat="46.345750000" lon="-72.437220000">
<ele>0</ele>
<time>2026-09-04T06:33:52Z</time>
</trkpt>
<trkpt lat="46.345270000" lon="-72.437190000">
<ele>0</ele>
<time>2026-09-04T06:33:53Z</time>
</trkpt>
<trkpt lat="46.344340000" lon="-72.437040000">
<ele>0</ele>
<time>2026-09-04T06:33:54Z</time>
</trkpt>
<trkpt lat="46.343300000" lon="-72.436860000">
<ele>0</ele>
<time>2026-09-04T06:33:55Z</time>
</trkpt>
<trkpt lat="46.341850000" lon="-72.436620000">
<ele>0</ele>
<time>2026-09-04T06:33:56Z</time>
</trkpt>
<trkpt lat="46.340870000" lon="-72.436560000">
<ele>0</ele>
<time>2026-09-04T06:33:57Z</time>
</trkpt>
<trkpt lat="46.340420000" lon="-72.436510000">
<ele>0</ele>
<time>2026-09-04T06:33:58Z</time>
</trkpt>
<trkpt lat="46.339670000" lon="-72.436300000">
<ele>0</ele>
<time>2026-09-04T06:33:59Z</time>
</trkpt>
<trkpt lat="46.339140000" lon="-72.436040000">
<ele>0</ele>
<time>2026-09-04T06:34:00Z</time>
</trkpt>
<trkpt lat="46.339170000" lon="-72.435830000">
<ele>0</ele>
<time>2026-09-04T06:34:01Z</time>
</trkpt>
<trkpt lat="46.339170000" lon="-72.435830000">
<ele>0</ele>
<time>2026-09-04T06:34:02Z</time>
</trkpt>
<trkpt lat="46.339210000" lon="-72.435270000">
<ele>0</ele>
<time>2026-09-04T06:34:03Z</time>
</trkpt>
<trkpt lat="46.339160000" lon="-72.433550000">
<ele>0</ele>
<time>2026-09-04T06:34:04Z</time>
</trkpt>
<trkpt lat="46.339120000" lon="-72.431910000">
<ele>0</ele>
<time>2026-09-04T06:34:05Z</time>
</trkpt>
<trkpt lat="46.339170000" lon="-72.431130000">
<ele>0</ele>
<time>2026-09-04T06:34:06Z</time>
</trkpt>
<trkpt lat="46.339220000" lon="-72.430390000">
<ele>0</ele>
<time>2026-09-04T06:34:07Z</time>
</trkpt>
<trkpt lat="46.339020000" lon="-72.430390000">
<ele>0</ele>
<time>2026-09-04T06:34:08Z</time>
</trkpt>
<trkpt lat="46.339020000" lon="-72.430390000">
<ele>0</ele>
<time>2026-09-04T06:34:09Z</time>
</trkpt>
<trkpt lat="46.338730000" lon="-72.430380000">
<ele>0</ele>
<time>2026-09-04T06:34:10Z</time>
</trkpt>
<trkpt lat="46.338400000" lon="-72.430290000">
<ele>0</ele>
<time>2026-09-04T06:34:11Z</time>
</trkpt>
<trkpt lat="46.338070000" lon="-72.430090000">
<ele>0</ele>
<time>2026-09-04T06:34:12Z</time>
</trkpt>
<trkpt lat="46.337000000" lon="-72.429290000">
<ele>0</ele>
<time>2026-09-04T06:34:13Z</time>
</trkpt>
<trkpt lat="46.336740000" lon="-72.429040000">
<ele>0</ele>
<time>2026-09-04T06:34:14Z</time>
</trkpt>
<trkpt lat="46.336590000" lon="-72.428830000">
<ele>0</ele>
<time>2026-09-04T06:34:15Z</time>
</trkpt>
<trkpt lat="46.336500000" lon="-72.428690000">
<ele>0</ele>
<time>2026-09-04T06:34:16Z</time>
</trkpt>
<trkpt lat="46.336320000" lon="-72.428310000">
<ele>0</ele>
<time>2026-09-04T06:34:17Z</time>
</trkpt>
<trkpt lat="46.336230000" lon="-72.428030000">
<ele>0</ele>
<time>2026-09-04T06:34:18Z</time>
</trkpt>
<trkpt lat="46.336200000" lon="-72.427870000">
<ele>0</ele>
<time>2026-09-04T06:34:19Z</time>
</trkpt>
<trkpt lat="46.336150000" lon="-72.427480000">
<ele>0</ele>
<time>2026-09-04T06:34:20Z</time>
</trkpt>
<trkpt lat="46.336150000" lon="-72.427130000">
<ele>0</ele>
<time>2026-09-04T06:34:21Z</time>
</trkpt>
<trkpt lat="46.336460000" lon="-72.424290000">
<ele>0</ele>
<time>2026-09-04T06:34:22Z</time>
</trkpt>
<trkpt lat="46.336460000" lon="-72.424040000">
<ele>0</ele>
<time>2026-09-04T06:34:23Z</time>
</trkpt>
<trkpt lat="46.336420000" lon="-72.423570000">
<ele>0</ele>
<time>2026-09-04T06:34:24Z</time>
</trkpt>
<trkpt lat="46.336330000" lon="-72.423130000">
<ele>0</ele>
<time>2026-09-04T06:34:25Z</time>
</trkpt>
<trkpt lat="46.336200000" lon="-72.422780000">
<ele>0</ele>
<time>2026-09-04T06:34:26Z</time>
</trkpt>
<trkpt lat="46.335970000" lon="-72.422380000">
<ele>0</ele>
<time>2026-09-04T06:34:27Z</time>
</trkpt>
<trkpt lat="46.335590000" lon="-72.421850000">
<ele>0</ele>
<time>2026-09-04T06:34:28Z</time>
</trkpt>
<trkpt lat="46.335280000" lon="-72.421410000">
<ele>0</ele>
<time>2026-09-04T06:34:29Z</time>
</trkpt>
<trkpt lat="46.335190000" lon="-72.421220000">
<ele>0</ele>
<time>2026-09-04T06:34:30Z</time>
</trkpt>
<trkpt lat="46.335090000" lon="-72.420970000">
<ele>0</ele>
<time>2026-09-04T06:34:31Z</time>
</trkpt>
<trkpt lat="46.334810000" lon="-72.420040000">
<ele>0</ele>
<time>2026-09-04T06:34:32Z</time>
</trkpt>
<trkpt lat="46.334730000" lon="-72.419870000">
<ele>0</ele>
<time>2026-09-04T06:34:33Z</time>
</trkpt>
<trkpt lat="46.334540000" lon="-72.419470000">
<ele>0</ele>
<time>2026-09-04T06:34:34Z</time>
</trkpt>
<trkpt lat="46.334410000" lon="-72.419280000">
<ele>0</ele>
<time>2026-09-04T06:34:35Z</time>
</trkpt>
<trkpt lat="46.333170000" lon="-72.417780000">
<ele>0</ele>
<time>2026-09-04T06:34:36Z</time>
</trkpt>
<trkpt lat="46.331960000" lon="-72.416300000">
<ele>0</ele>
<time>2026-09-04T06:34:37Z</time>
</trkpt>
<trkpt lat="46.331800000" lon="-72.416050000">
<ele>0</ele>
<time>2026-09-04T06:34:38Z</time>
</trkpt>
<trkpt lat="46.331670000" lon="-72.415780000">
<ele>0</ele>
<time>2026-09-04T06:34:39Z</time>
</trkpt>
<trkpt lat="46.331450000" lon="-72.415160000">
<ele>0</ele>
<time>2026-09-04T06:34:40Z</time>
</trkpt>
<trkpt lat="46.331310000" lon="-72.414650000">
<ele>0</ele>
<time>2026-09-04T06:34:41Z</time>
</trkpt>
<trkpt lat="46.331230000" lon="-72.414200000">
<ele>0</ele>
<time>2026-09-04T06:34:42Z</time>
</trkpt>
<trkpt lat="46.331030000" lon="-72.413200000">
<ele>0</ele>
<time>2026-09-04T06:34:43Z</time>
</trkpt>
<trkpt lat="46.330960000" lon="-72.412690000">
<ele>0</ele>
<time>2026-09-04T06:34:44Z</time>
</trkpt>
<trkpt lat="46.330950000" lon="-72.412420000">
<ele>0</ele>
<time>2026-09-04T06:34:45Z</time>
</trkpt>
<trkpt lat="46.330970000" lon="-72.411980000">
<ele>0</ele>
<time>2026-09-04T06:34:46Z</time>
</trkpt>
<trkpt lat="46.331070000" lon="-72.411110000">
<ele>0</ele>
<time>2026-09-04T06:34:47Z</time>
</trkpt>
<trkpt lat="46.331120000" lon="-72.410630000">
<ele>0</ele>
<time>2026-09-04T06:34:48Z</time>
</trkpt>
<trkpt lat="46.331130000" lon="-72.410160000">
<ele>0</ele>
<time>2026-09-04T06:34:49Z</time>
</trkpt>
<trkpt lat="46.331030000" lon="-72.409080000">
<ele>0</ele>
<time>2026-09-04T06:34:50Z</time>
</trkpt>
<trkpt lat="46.330840000" lon="-72.408000000">
<ele>0</ele>
<time>2026-09-04T06:34:51Z</time>
</trkpt>
<trkpt lat="46.330620000" lon="-72.407080000">
<ele>0</ele>
<time>2026-09-04T06:34:52Z</time>
</trkpt>
<trkpt lat="46.330700000" lon="-72.407040000">
<ele>0</ele>
<time>2026-09-04T06:34:53Z</time>
</trkpt>
<trkpt lat="46.330760000" lon="-72.406990000">
<ele>0</ele>
<time>2026-09-04T06:34:54Z</time>
</trkpt>
<trkpt lat="46.330760000" lon="-72.406990000">
<ele>0</ele>
<time>2026-09-04T06:34:55Z</time>
</trkpt>
<trkpt lat="46.331250000" lon="-72.406540000">
<ele>0</ele>
<time>2026-09-04T06:34:56Z</time>
</trkpt>
<trkpt lat="46.332550000" lon="-72.404950000">
<ele>0</ele>
<time>2026-09-04T06:34:57Z</time>
</trkpt>
<trkpt lat="46.333010000" lon="-72.404200000">
<ele>0</ele>
<time>2026-09-04T06:34:58Z</time>
</trkpt>
<trkpt lat="46.333530000" lon="-72.403230000">
<ele>0</ele>
<time>2026-09-04T06:34:59Z</time>
</trkpt>
<trkpt lat="46.333840000" lon="-72.402740000">
<ele>0</ele>
<time>2026-09-04T06:35:00Z</time>
</trkpt>
<trkpt lat="46.334230000" lon="-72.402280000">
<ele>0</ele>
<time>2026-09-04T06:35:01Z</time>
</trkpt>
<trkpt lat="46.334640000" lon="-72.401930000">
<ele>0</ele>
<time>2026-09-04T06:35:02Z</time>
</trkpt>
<trkpt lat="46.335120000" lon="-72.401590000">
<ele>0</ele>
<time>2026-09-04T06:35:03Z</time>
</trkpt>
<trkpt lat="46.336180000" lon="-72.400910000">
<ele>0</ele>
<time>2026-09-04T06:35:04Z</time>
</trkpt>
<trkpt lat="46.336750000" lon="-72.400500000">
<ele>0</ele>
<time>2026-09-04T06:35:05Z</time>
</trkpt>
<trkpt lat="46.336910000" lon="-72.400360000">
<ele>0</ele>
<time>2026-09-04T06:35:06Z</time>
</trkpt>
<trkpt lat="46.337050000" lon="-72.400190000">
<ele>0</ele>
<time>2026-09-04T06:35:07Z</time>
</trkpt>
<trkpt lat="46.337590000" lon="-72.399520000">
<ele>0</ele>
<time>2026-09-04T06:35:08Z</time>
</trkpt>
<trkpt lat="46.337780000" lon="-72.399330000">
<ele>0</ele>
<time>2026-09-04T06:35:09Z</time>
</trkpt>
<trkpt lat="46.338080000" lon="-72.399090000">
<ele>0</ele>
<time>2026-09-04T06:35:10Z</time>
</trkpt>
<trkpt lat="46.338350000" lon="-72.398890000">
<ele>0</ele>
<time>2026-09-04T06:35:11Z</time>
</trkpt>
<trkpt lat="46.339460000" lon="-72.398310000">
<ele>0</ele>
<time>2026-09-04T06:35:12Z</time>
</trkpt>
<trkpt lat="46.339790000" lon="-72.398060000">
<ele>0</ele>
<time>2026-09-04T06:35:13Z</time>
</trkpt>
<trkpt lat="46.340220000" lon="-72.397610000">
<ele>0</ele>
<time>2026-09-04T06:35:14Z</time>
</trkpt>
<trkpt lat="46.342760000" lon="-72.394580000">
<ele>0</ele>
<time>2026-09-04T06:35:15Z</time>
</trkpt>
<trkpt lat="46.343250000" lon="-72.394120000">
<ele>0</ele>
<time>2026-09-04T06:35:16Z</time>
</trkpt>
<trkpt lat="46.344350000" lon="-72.393180000">
<ele>0</ele>
<time>2026-09-04T06:35:17Z</time>
</trkpt>
<trkpt lat="46.345300000" lon="-72.392310000">
<ele>0</ele>
<time>2026-09-04T06:35:18Z</time>
</trkpt>
<trkpt lat="46.345740000" lon="-72.391960000">
<ele>0</ele>
<time>2026-09-04T06:35:19Z</time>
</trkpt>
<trkpt lat="46.346680000" lon="-72.391200000">
<ele>0</ele>
<time>2026-09-04T06:35:20Z</time>
</trkpt>
<trkpt lat="46.347560000" lon="-72.390510000">
<ele>0</ele>
<time>2026-09-04T06:35:21Z</time>
</trkpt>
<trkpt lat="46.349270000" lon="-72.389370000">
<ele>0</ele>
<time>2026-09-04T06:35:22Z</time>
</trkpt>
<trkpt lat="46.350200000" lon="-72.388790000">
<ele>0</ele>
<time>2026-09-04T06:35:23Z</time>
</trkpt>
<trkpt lat="46.350410000" lon="-72.388690000">
<ele>0</ele>
<time>2026-09-04T06:35:24Z</time>
</trkpt>
<trkpt lat="46.350790000" lon="-72.388640000">
<ele>0</ele>
<time>2026-09-04T06:35:25Z</time>
</trkpt>
<trkpt lat="46.352560000" lon="-72.388490000">
<ele>0</ele>
<time>2026-09-04T06:35:26Z</time>
</trkpt>
<trkpt lat="46.354960000" lon="-72.388890000">
<ele>0</ele>
<time>2026-09-04T06:35:27Z</time>
</trkpt>
<trkpt lat="46.355080000" lon="-72.388890000">
<ele>0</ele>
<time>2026-09-04T06:35:28Z</time>
</trkpt>
<trkpt lat="46.356700000" lon="-72.388730000">
<ele>0</ele>
<time>2026-09-04T06:35:29Z</time>
</trkpt>
<trkpt lat="46.358660000" lon="-72.388530000">
<ele>0</ele>
<time>2026-09-04T06:35:30Z</time>
</trkpt>
<trkpt lat="46.359050000" lon="-72.388580000">
<ele>0</ele>
<time>2026-09-04T06:35:31Z</time>
</trkpt>
<trkpt lat="46.359220000" lon="-72.388630000">
<ele>0</ele>
<time>2026-09-04T06:35:32Z</time>
</trkpt>
<trkpt lat="46.359420000" lon="-72.388700000">
<ele>0</ele>
<time>2026-09-04T06:35:33Z</time>
</trkpt>
<trkpt lat="46.359810000" lon="-72.388910000">
<ele>0</ele>
<time>2026-09-04T06:35:34Z</time>
</trkpt>
<trkpt lat="46.360100000" lon="-72.389150000">
<ele>0</ele>
<time>2026-09-04T06:35:35Z</time>
</trkpt>
<trkpt lat="46.362340000" lon="-72.391280000">
<ele>0</ele>
<time>2026-09-04T06:35:36Z</time>
</trkpt>
<trkpt lat="46.362960000" lon="-72.391930000">
<ele>0</ele>
<time>2026-09-04T06:35:37Z</time>
</trkpt>
<trkpt lat="46.363180000" lon="-72.392050000">
<ele>0</ele>
<time>2026-09-04T06:35:38Z</time>
</trkpt>
<trkpt lat="46.363230000" lon="-72.391930000">
<ele>0</ele>
<time>2026-09-04T06:35:39Z</time>
</trkpt>
<trkpt lat="46.363230000" lon="-72.391930000">
<ele>0</ele>
<time>2026-09-04T06:35:40Z</time>
</trkpt>
<trkpt lat="46.366830000" lon="-72.383900000">
<ele>0</ele>
<time>2026-09-04T06:35:41Z</time>
</trkpt>
<trkpt lat="46.368510000" lon="-72.380140000">
<ele>0</ele>
<time>2026-09-04T06:35:42Z</time>
</trkpt>
<trkpt lat="46.368670000" lon="-72.379720000">
<ele>0</ele>
<time>2026-09-04T06:35:43Z</time>
</trkpt>
<trkpt lat="46.368770000" lon="-72.379310000">
<ele>0</ele>
<time>2026-09-04T06:35:44Z</time>
</trkpt>
<trkpt lat="46.368800000" lon="-72.378870000">
<ele>0</ele>
<time>2026-09-04T06:35:45Z</time>
</trkpt>
<trkpt lat="46.368790000" lon="-72.378430000">
<ele>0</ele>
<time>2026-09-04T06:35:46Z</time>
</trkpt>
<trkpt lat="46.368750000" lon="-72.378060000">
<ele>0</ele>
<time>2026-09-04T06:35:47Z</time>
</trkpt>
<trkpt lat="46.368590000" lon="-72.376930000">
<ele>0</ele>
<time>2026-09-04T06:35:48Z</time>
</trkpt>
<trkpt lat="46.368580000" lon="-72.376660000">
<ele>0</ele>
<time>2026-09-04T06:35:49Z</time>
</trkpt>
<trkpt lat="46.368590000" lon="-72.376180000">
<ele>0</ele>
<time>2026-09-04T06:35:50Z</time>
</trkpt>
<trkpt lat="46.368660000" lon="-72.375760000">
<ele>0</ele>
<time>2026-09-04T06:35:51Z</time>
</trkpt>
<trkpt lat="46.368820000" lon="-72.375270000">
<ele>0</ele>
<time>2026-09-04T06:35:52Z</time>
</trkpt>
<trkpt lat="46.369080000" lon="-72.374720000">
<ele>0</ele>
<time>2026-09-04T06:35:53Z</time>
</trkpt>
<trkpt lat="46.369660000" lon="-72.373380000">
<ele>0</ele>
<time>2026-09-04T06:35:54Z</time>
</trkpt>
<trkpt lat="46.370040000" lon="-72.372530000">
<ele>0</ele>
<time>2026-09-04T06:35:55Z</time>
</trkpt>
<trkpt lat="46.370260000" lon="-72.372210000">
<ele>0</ele>
<time>2026-09-04T06:35:56Z</time>
</trkpt>
<trkpt lat="46.370440000" lon="-72.372020000">
<ele>0</ele>
<time>2026-09-04T06:35:57Z</time>
</trkpt>
<trkpt lat="46.370640000" lon="-72.371900000">
<ele>0</ele>
<time>2026-09-04T06:35:58Z</time>
</trkpt>
<trkpt lat="46.371600000" lon="-72.371510000">
<ele>0</ele>
<time>2026-09-04T06:35:59Z</time>
</trkpt>
<trkpt lat="46.372080000" lon="-72.371370000">
<ele>0</ele>
<time>2026-09-04T06:36:00Z</time>
</trkpt>
<trkpt lat="46.372330000" lon="-72.371150000">
<ele>0</ele>
<time>2026-09-04T06:36:01Z</time>
</trkpt>
<trkpt lat="46.372600000" lon="-72.370870000">
<ele>0</ele>
<time>2026-09-04T06:36:02Z</time>
</trkpt>
<trkpt lat="46.372840000" lon="-72.370430000">
<ele>0</ele>
<time>2026-09-04T06:36:03Z</time>
</trkpt>
<trkpt lat="46.374520000" lon="-72.366730000">
<ele>0</ele>
<time>2026-09-04T06:36:04Z</time>
</trkpt>
<trkpt lat="46.377590000" lon="-72.359850000">
<ele>0</ele>
<time>2026-09-04T06:36:05Z</time>
</trkpt>
<trkpt lat="46.377660000" lon="-72.359600000">
<ele>0</ele>
<time>2026-09-04T06:36:06Z</time>
</trkpt>
<trkpt lat="46.377940000" lon="-72.357950000">
<ele>0</ele>
<time>2026-09-04T06:36:07Z</time>
</trkpt>
<trkpt lat="46.378160000" lon="-72.356970000">
<ele>0</ele>
<time>2026-09-04T06:36:08Z</time>
</trkpt>
<trkpt lat="46.378300000" lon="-72.356440000">
<ele>0</ele>
<time>2026-09-04T06:36:09Z</time>
</trkpt>
<trkpt lat="46.378480000" lon="-72.355970000">
<ele>0</ele>
<time>2026-09-04T06:36:10Z</time>
</trkpt>
<trkpt lat="46.378640000" lon="-72.355590000">
<ele>0</ele>
<time>2026-09-04T06:36:11Z</time>
</trkpt>
<trkpt lat="46.378980000" lon="-72.354890000">
<ele>0</ele>
<time>2026-09-04T06:36:12Z</time>
</trkpt>
<trkpt lat="46.379790000" lon="-72.353280000">
<ele>0</ele>
<time>2026-09-04T06:36:13Z</time>
</trkpt>
<trkpt lat="46.380030000" lon="-72.352730000">
<ele>0</ele>
<time>2026-09-04T06:36:14Z</time>
</trkpt>
<trkpt lat="46.380140000" lon="-72.352310000">
<ele>0</ele>
<time>2026-09-04T06:36:15Z</time>
</trkpt>
<trkpt lat="46.380270000" lon="-72.351580000">
<ele>0</ele>
<time>2026-09-04T06:36:16Z</time>
</trkpt>
<trkpt lat="46.380450000" lon="-72.350210000">
<ele>0</ele>
<time>2026-09-04T06:36:17Z</time>
</trkpt>
<trkpt lat="46.380940000" lon="-72.345000000">
<ele>0</ele>
<time>2026-09-04T06:36:18Z</time>
</trkpt>
<trkpt lat="46.381310000" lon="-72.341120000">
<ele>0</ele>
<time>2026-09-04T06:36:19Z</time>
</trkpt>
<trkpt lat="46.381660000" lon="-72.338030000">
<ele>0</ele>
<time>2026-09-04T06:36:20Z</time>
</trkpt>
<trkpt lat="46.381850000" lon="-72.336490000">
<ele>0</ele>
<time>2026-09-04T06:36:21Z</time>
</trkpt>
<trkpt lat="46.381850000" lon="-72.336380000">
<ele>0</ele>
<time>2026-09-04T06:36:22Z</time>
</trkpt>
<trkpt lat="46.381840000" lon="-72.336350000">
<ele>0</ele>
<time>2026-09-04T06:36:23Z</time>
</trkpt>
<trkpt lat="46.381960000" lon="-72.336390000">
<ele>0</ele>
<time>2026-09-04T06:36:24Z</time>
</trkpt>
<trkpt lat="46.381960000" lon="-72.336390000">
<ele>0</ele>
<time>2026-09-04T06:36:25Z</time>
</trkpt>
<trkpt lat="46.382250000" lon="-72.336480000">
<ele>0</ele>
<time>2026-09-04T06:36:26Z</time>
</trkpt>
<trkpt lat="46.382340000" lon="-72.336470000">
<ele>0</ele>
<time>2026-09-04T06:36:27Z</time>
</trkpt>
<trkpt lat="46.382390000" lon="-72.336420000">
<ele>0</ele>
<time>2026-09-04T06:36:28Z</time>
</trkpt>
<trkpt lat="46.382410000" lon="-72.336320000">
<ele>0</ele>
<time>2026-09-04T06:36:29Z</time>
</trkpt>
<trkpt lat="46.382620000" lon="-72.335120000">
<ele>0</ele>
<time>2026-09-04T06:36:30Z</time>
</trkpt>
<trkpt lat="46.382640000" lon="-72.335010000">
<ele>0</ele>
<time>2026-09-04T06:36:31Z</time>
</trkpt>
<trkpt lat="46.382710000" lon="-72.334840000">
<ele>0</ele>
<time>2026-09-04T06:36:32Z</time>
</trkpt>
<trkpt lat="46.382710000" lon="-72.334840000">
<ele>0</ele>
<time>2026-09-04T06:36:33Z</time>
</trkpt>
<trkpt lat="46.382800000" lon="-72.334670000">
<ele>0</ele>
<time>2026-09-04T06:36:34Z</time>
</trkpt>
<trkpt lat="46.382630000" lon="-72.334520000">
<ele>0</ele>
<time>2026-09-04T06:36:35Z</time>
</trkpt>
<trkpt lat="46.382630000" lon="-72.334520000">
<ele>0</ele>
<time>2026-09-04T06:36:36Z</time>
</trkpt>
<trkpt lat="46.382310000" lon="-72.334230000">
<ele>0</ele>
<time>2026-09-04T06:36:37Z</time>
</trkpt>
<trkpt lat="46.382060000" lon="-72.333950000">
<ele>0</ele>
<time>2026-09-04T06:36:38Z</time>
</trkpt>
<trkpt lat="46.381670000" lon="-72.333380000">
<ele>0</ele>
<time>2026-09-04T06:36:39Z</time>
</trkpt>
<trkpt lat="46.381550000" lon="-72.333100000">
<ele>0</ele>
<time>2026-09-04T06:36:40Z</time>
</trkpt>
<trkpt lat="46.381490000" lon="-72.332930000">
<ele>0</ele>
<time>2026-09-04T06:36:41Z</time>
</trkpt>
<trkpt lat="46.381400000" lon="-72.332390000">
<ele>0</ele>
<time>2026-09-04T06:36:42Z</time>
</trkpt>
<trkpt lat="46.381280000" lon="-72.331650000">
<ele>0</ele>
<time>2026-09-04T06:36:43Z</time>
</trkpt>
<trkpt lat="46.381150000" lon="-72.331140000">
<ele>0</ele>
<time>2026-09-04T06:36:44Z</time>
</trkpt>
<trkpt lat="46.381020000" lon="-72.330650000">
<ele>0</ele>
<time>2026-09-04T06:36:45Z</time>
</trkpt>
<trkpt lat="46.380830000" lon="-72.329990000">
<ele>0</ele>
<time>2026-09-04T06:36:46Z</time>
</trkpt>
<trkpt lat="46.380710000" lon="-72.329720000">
<ele>0</ele>
<time>2026-09-04T06:36:47Z</time>
</trkpt>
<trkpt lat="46.380510000" lon="-72.329320000">
<ele>0</ele>
<time>2026-09-04T06:36:48Z</time>
</trkpt>
<trkpt lat="46.380300000" lon="-72.329020000">
<ele>0</ele>
<time>2026-09-04T06:36:49Z</time>
</trkpt>
<trkpt lat="46.380010000" lon="-72.328670000">
<ele>0</ele>
<time>2026-09-04T06:36:50Z</time>
</trkpt>
<trkpt lat="46.379550000" lon="-72.328110000">
<ele>0</ele>
<time>2026-09-04T06:36:51Z</time>
</trkpt>
<trkpt lat="46.379320000" lon="-72.327700000">
<ele>0</ele>
<time>2026-09-04T06:36:52Z</time>
</trkpt>
<trkpt lat="46.379180000" lon="-72.327400000">
<ele>0</ele>
<time>2026-09-04T06:36:53Z</time>
</trkpt>
<trkpt lat="46.378980000" lon="-72.326790000">
<ele>0</ele>
<time>2026-09-04T06:36:54Z</time>
</trkpt>
<trkpt lat="46.378850000" lon="-72.326300000">
<ele>0</ele>
<time>2026-09-04T06:36:55Z</time>
</trkpt>
<trkpt lat="46.378710000" lon="-72.325820000">
<ele>0</ele>
<time>2026-09-04T06:36:56Z</time>
</trkpt>
<trkpt lat="46.378590000" lon="-72.325520000">
<ele>0</ele>
<time>2026-09-04T06:36:57Z</time>
</trkpt>
<trkpt lat="46.378410000" lon="-72.325250000">
<ele>0</ele>
<time>2026-09-04T06:36:58Z</time>
</trkpt>
<trkpt lat="46.378360000" lon="-72.325190000">
<ele>0</ele>
<time>2026-09-04T06:36:59Z</time>
</trkpt>
<trkpt lat="46.378230000" lon="-72.325110000">
<ele>0</ele>
<time>2026-09-04T06:37:00Z</time>
</trkpt>
<trkpt lat="46.377920000" lon="-72.324950000">
<ele>0</ele>
<time>2026-09-04T06:37:01Z</time>
</trkpt>
<trkpt lat="46.377550000" lon="-72.324780000">
<ele>0</ele>
<time>2026-09-04T06:37:02Z</time>
</trkpt>
<trkpt lat="46.376530000" lon="-72.324260000">
<ele>0</ele>
<time>2026-09-04T06:37:03Z</time>
</trkpt>
<trkpt lat="46.376020000" lon="-72.323980000">
<ele>0</ele>
<time>2026-09-04T06:37:04Z</time>
</trkpt>
<trkpt lat="46.375220000" lon="-72.323490000">
<ele>0</ele>
<time>2026-09-04T06:37:05Z</time>
</trkpt>
<trkpt lat="46.375120000" lon="-72.323400000">
<ele>0</ele>
<time>2026-09-04T06:37:06Z</time>
</trkpt>
<trkpt lat="46.374960000" lon="-72.323180000">
<ele>0</ele>
<time>2026-09-04T06:37:07Z</time>
</trkpt>
<trkpt lat="46.374850000" lon="-72.322900000">
<ele>0</ele>
<time>2026-09-04T06:37:08Z</time>
</trkpt>
<trkpt lat="46.374780000" lon="-72.322650000">
<ele>0</ele>
<time>2026-09-04T06:37:09Z</time>
</trkpt>
<trkpt lat="46.374420000" lon="-72.321180000">
<ele>0</ele>
<time>2026-09-04T06:37:10Z</time>
</trkpt>
<trkpt lat="46.373930000" lon="-72.319280000">
<ele>0</ele>
<time>2026-09-04T06:37:11Z</time>
</trkpt>
<trkpt lat="46.372100000" lon="-72.312200000">
<ele>0</ele>
<time>2026-09-04T06:37:12Z</time>
</trkpt>
<trkpt lat="46.371660000" lon="-72.310490000">
<ele>0</ele>
<time>2026-09-04T06:37:13Z</time>
</trkpt>
<trkpt lat="46.370880000" lon="-72.307300000">
<ele>0</ele>
<time>2026-09-04T06:37:14Z</time>
</trkpt>
<trkpt lat="46.370280000" lon="-72.304840000">
<ele>0</ele>
<time>2026-09-04T06:37:15Z</time>
</trkpt>
<trkpt lat="46.368710000" lon="-72.298410000">
<ele>0</ele>
<time>2026-09-04T06:37:16Z</time>
</trkpt>
<trkpt lat="46.368580000" lon="-72.298010000">
<ele>0</ele>
<time>2026-09-04T06:37:17Z</time>
</trkpt>
<trkpt lat="46.368420000" lon="-72.297610000">
<ele>0</ele>
<time>2026-09-04T06:37:18Z</time>
</trkpt>
<trkpt lat="46.368190000" lon="-72.297260000">
<ele>0</ele>
<time>2026-09-04T06:37:19Z</time>
</trkpt>
<trkpt lat="46.367130000" lon="-72.296050000">
<ele>0</ele>
<time>2026-09-04T06:37:20Z</time>
</trkpt>
<trkpt lat="46.367260000" lon="-72.295790000">
<ele>0</ele>
<time>2026-09-04T06:37:21Z</time>
</trkpt>
<trkpt lat="46.367260000" lon="-72.295790000">
<ele>0</ele>
<time>2026-09-04T06:37:22Z</time>
</trkpt>
<trkpt lat="46.369310000" lon="-72.291590000">
<ele>0</ele>
<time>2026-09-04T06:37:23Z</time>
</trkpt>
<trkpt lat="46.370670000" lon="-72.288950000">
<ele>0</ele>
<time>2026-09-04T06:37:24Z</time>
</trkpt>
<trkpt lat="46.372050000" lon="-72.286300000">
<ele>0</ele>
<time>2026-09-04T06:37:25Z</time>
</trkpt>
<trkpt lat="46.372570000" lon="-72.285240000">
<ele>0</ele>
<time>2026-09-04T06:37:26Z</time>
</trkpt>
<trkpt lat="46.372980000" lon="-72.284300000">
<ele>0</ele>
<time>2026-09-04T06:37:27Z</time>
</trkpt>
<trkpt lat="46.373530000" lon="-72.282950000">
<ele>0</ele>
<time>2026-09-04T06:37:28Z</time>
</trkpt>
<trkpt lat="46.374570000" lon="-72.280520000">
<ele>0</ele>
<time>2026-09-04T06:37:29Z</time>
</trkpt>
<trkpt lat="46.375020000" lon="-72.279490000">
<ele>0</ele>
<time>2026-09-04T06:37:30Z</time>
</trkpt>
<trkpt lat="46.375200000" lon="-72.279040000">
<ele>0</ele>
<time>2026-09-04T06:37:31Z</time>
</trkpt>
<trkpt lat="46.375450000" lon="-72.278350000">
<ele>0</ele>
<time>2026-09-04T06:37:32Z</time>
</trkpt>
<trkpt lat="46.376130000" lon="-72.276810000">
<ele>0</ele>
<time>2026-09-04T06:37:33Z</time>
</trkpt>
<trkpt lat="46.376520000" lon="-72.275940000">
<ele>0</ele>
<time>2026-09-04T06:37:34Z</time>
</trkpt>
<trkpt lat="46.376820000" lon="-72.275280000">
<ele>0</ele>
<time>2026-09-04T06:37:35Z</time>
</trkpt>
<trkpt lat="46.376940000" lon="-72.275320000">
<ele>0</ele>
<time>2026-09-04T06:37:36Z</time>
</trkpt>
<trkpt lat="46.376940000" lon="-72.275320000">
<ele>0</ele>
<time>2026-09-04T06:37:37Z</time>
</trkpt>
<trkpt lat="46.377060000" lon="-72.275360000">
<ele>0</ele>
<time>2026-09-04T06:37:38Z</time>
</trkpt>
<trkpt lat="46.377150000" lon="-72.275450000">
<ele>0</ele>
<time>2026-09-04T06:37:39Z</time>
</trkpt>
<trkpt lat="46.377300000" lon="-72.275590000">
<ele>0</ele>
<time>2026-09-04T06:37:40Z</time>
</trkpt>
<trkpt lat="46.377550000" lon="-72.275970000">
<ele>0</ele>
<time>2026-09-04T06:37:41Z</time>
</trkpt>
<trkpt lat="46.378440000" lon="-72.277260000">
<ele>0</ele>
<time>2026-09-04T06:37:42Z</time>
</trkpt>
<trkpt lat="46.378950000" lon="-72.278000000">
<ele>0</ele>
<time>2026-09-04T06:37:43Z</time>
</trkpt>
<trkpt lat="46.379970000" lon="-72.279470000">
<ele>0</ele>
<time>2026-09-04T06:37:44Z</time>
</trkpt>
<trkpt lat="46.380990000" lon="-72.280940000">
<ele>0</ele>
<time>2026-09-04T06:37:45Z</time>
</trkpt>
<trkpt lat="46.381830000" lon="-72.282150000">
<ele>0</ele>
<time>2026-09-04T06:37:46Z</time>
</trkpt>
<trkpt lat="46.381920000" lon="-72.281930000">
<ele>0</ele>
<time>2026-09-04T06:37:47Z</time>
</trkpt>
<trkpt lat="46.381920000" lon="-72.281930000">
<ele>0</ele>
<time>2026-09-04T06:37:48Z</time>
</trkpt>
<trkpt lat="46.383060000" lon="-72.278960000">
<ele>0</ele>
<time>2026-09-04T06:37:49Z</time>
</trkpt>
<trkpt lat="46.383560000" lon="-72.277570000">
<ele>0</ele>
<time>2026-09-04T06:37:50Z</time>
</trkpt>
<trkpt lat="46.383870000" lon="-72.276930000">
<ele>0</ele>
<time>2026-09-04T06:37:51Z</time>
</trkpt>
<trkpt lat="46.384630000" lon="-72.275480000">
<ele>0</ele>
<time>2026-09-04T06:37:52Z</time>
</trkpt>
<trkpt lat="46.385660000" lon="-72.273670000">
<ele>0</ele>
<time>2026-09-04T06:37:53Z</time>
</trkpt>
<trkpt lat="46.386100000" lon="-72.272850000">
<ele>0</ele>
<time>2026-09-04T06:37:54Z</time>
</trkpt>
<trkpt lat="46.386500000" lon="-72.272100000">
<ele>0</ele>
<time>2026-09-04T06:37:55Z</time>
</trkpt>
<trkpt lat="46.386780000" lon="-72.271620000">
<ele>0</ele>
<time>2026-09-04T06:37:56Z</time>
</trkpt>
<trkpt lat="46.387200000" lon="-72.271150000">
<ele>0</ele>
<time>2026-09-04T06:37:57Z</time>
</trkpt>
<trkpt lat="46.387660000" lon="-72.270700000">
<ele>0</ele>
<time>2026-09-04T06:37:58Z</time>
</trkpt>
<trkpt lat="46.388050000" lon="-72.270410000">
<ele>0</ele>
<time>2026-09-04T06:37:59Z</time>
</trkpt>
<trkpt lat="46.388790000" lon="-72.269950000">
<ele>0</ele>
<time>2026-09-04T06:38:00Z</time>
</trkpt>
<trkpt lat="46.389080000" lon="-72.269760000">
<ele>0</ele>
<time>2026-09-04T06:38:01Z</time>
</trkpt>
<trkpt lat="46.389430000" lon="-72.269500000">
<ele>0</ele>
<time>2026-09-04T06:38:02Z</time>
</trkpt>
<trkpt lat="46.389870000" lon="-72.269040000">
<ele>0</ele>
<time>2026-09-04T06:38:03Z</time>
</trkpt>
<trkpt lat="46.390240000" lon="-72.268480000">
<ele>0</ele>
<time>2026-09-04T06:38:04Z</time>
</trkpt>
<trkpt lat="46.391410000" lon="-72.266930000">
<ele>0</ele>
<time>2026-09-04T06:38:05Z</time>
</trkpt>
<trkpt lat="46.391630000" lon="-72.266680000">
<ele>0</ele>
<time>2026-09-04T06:38:06Z</time>
</trkpt>
<trkpt lat="46.391670000" lon="-72.266580000">
<ele>0</ele>
<time>2026-09-04T06:38:07Z</time>
</trkpt>
<trkpt lat="46.392350000" lon="-72.265860000">
<ele>0</ele>
<time>2026-09-04T06:38:08Z</time>
</trkpt>
<trkpt lat="46.392780000" lon="-72.265280000">
<ele>0</ele>
<time>2026-09-04T06:38:09Z</time>
</trkpt>
<trkpt lat="46.393150000" lon="-72.264680000">
<ele>0</ele>
<time>2026-09-04T06:38:10Z</time>
</trkpt>
<trkpt lat="46.393340000" lon="-72.264290000">
<ele>0</ele>
<time>2026-09-04T06:38:11Z</time>
</trkpt>
<trkpt lat="46.393400000" lon="-72.264090000">
<ele>0</ele>
<time>2026-09-04T06:38:12Z</time>
</trkpt>
<trkpt lat="46.393660000" lon="-72.262950000">
<ele>0</ele>
<time>2026-09-04T06:38:13Z</time>
</trkpt>
<trkpt lat="46.393770000" lon="-72.262450000">
<ele>0</ele>
<time>2026-09-04T06:38:14Z</time>
</trkpt>
<trkpt lat="46.394190000" lon="-72.260560000">
<ele>0</ele>
<time>2026-09-04T06:38:15Z</time>
</trkpt>
<trkpt lat="46.395070000" lon="-72.256600000">
<ele>0</ele>
<time>2026-09-04T06:38:16Z</time>
</trkpt>
<trkpt lat="46.395740000" lon="-72.254160000">
<ele>0</ele>
<time>2026-09-04T06:38:17Z</time>
</trkpt>
<trkpt lat="46.395840000" lon="-72.253950000">
<ele>0</ele>
<time>2026-09-04T06:38:18Z</time>
</trkpt>
<trkpt lat="46.396710000" lon="-72.251970000">
<ele>0</ele>
<time>2026-09-04T06:38:19Z</time>
</trkpt>
<trkpt lat="46.396910000" lon="-72.251540000">
<ele>0</ele>
<time>2026-09-04T06:38:20Z</time>
</trkpt>
<trkpt lat="46.397380000" lon="-72.250670000">
<ele>0</ele>
<time>2026-09-04T06:38:21Z</time>
</trkpt>
<trkpt lat="46.397740000" lon="-72.250170000">
<ele>0</ele>
<time>2026-09-04T06:38:22Z</time>
</trkpt>
<trkpt lat="46.397940000" lon="-72.249880000">
<ele>0</ele>
<time>2026-09-04T06:38:23Z</time>
</trkpt>
<trkpt lat="46.398270000" lon="-72.249130000">
<ele>0</ele>
<time>2026-09-04T06:38:24Z</time>
</trkpt>
<trkpt lat="46.398400000" lon="-72.248840000">
<ele>0</ele>
<time>2026-09-04T06:38:25Z</time>
</trkpt>
<trkpt lat="46.398860000" lon="-72.247190000">
<ele>0</ele>
<time>2026-09-04T06:38:26Z</time>
</trkpt>
<trkpt lat="46.399420000" lon="-72.245030000">
<ele>0</ele>
<time>2026-09-04T06:38:27Z</time>
</trkpt>
<trkpt lat="46.400260000" lon="-72.241860000">
<ele>0</ele>
<time>2026-09-04T06:38:28Z</time>
</trkpt>
<trkpt lat="46.400830000" lon="-72.239670000">
<ele>0</ele>
<time>2026-09-04T06:38:29Z</time>
</trkpt>
<trkpt lat="46.401060000" lon="-72.238820000">
<ele>0</ele>
<time>2026-09-04T06:38:30Z</time>
</trkpt>
<trkpt lat="46.401220000" lon="-72.237970000">
<ele>0</ele>
<time>2026-09-04T06:38:31Z</time>
</trkpt>
<trkpt lat="46.401290000" lon="-72.236980000">
<ele>0</ele>
<time>2026-09-04T06:38:32Z</time>
</trkpt>
<trkpt lat="46.401170000" lon="-72.235360000">
<ele>0</ele>
<time>2026-09-04T06:38:33Z</time>
</trkpt>
<trkpt lat="46.401040000" lon="-72.234090000">
<ele>0</ele>
<time>2026-09-04T06:38:34Z</time>
</trkpt>
<trkpt lat="46.400970000" lon="-72.233010000">
<ele>0</ele>
<time>2026-09-04T06:38:35Z</time>
</trkpt>
<trkpt lat="46.400960000" lon="-72.232750000">
<ele>0</ele>
<time>2026-09-04T06:38:36Z</time>
</trkpt>
<trkpt lat="46.400980000" lon="-72.231790000">
<ele>0</ele>
<time>2026-09-04T06:38:37Z</time>
</trkpt>
<trkpt lat="46.401050000" lon="-72.231160000">
<ele>0</ele>
<time>2026-09-04T06:38:38Z</time>
</trkpt>
<trkpt lat="46.401090000" lon="-72.230680000">
<ele>0</ele>
<time>2026-09-04T06:38:39Z</time>
</trkpt>
<trkpt lat="46.401250000" lon="-72.229770000">
<ele>0</ele>
<time>2026-09-04T06:38:40Z</time>
</trkpt>
<trkpt lat="46.401340000" lon="-72.229090000">
<ele>0</ele>
<time>2026-09-04T06:38:41Z</time>
</trkpt>
<trkpt lat="46.401480000" lon="-72.228050000">
<ele>0</ele>
<time>2026-09-04T06:38:42Z</time>
</trkpt>
<trkpt lat="46.401710000" lon="-72.226790000">
<ele>0</ele>
<time>2026-09-04T06:38:43Z</time>
</trkpt>
<trkpt lat="46.402150000" lon="-72.225820000">
<ele>0</ele>
<time>2026-09-04T06:38:44Z</time>
</trkpt>
<trkpt lat="46.402630000" lon="-72.225130000">
<ele>0</ele>
<time>2026-09-04T06:38:45Z</time>
</trkpt>
<trkpt lat="46.403700000" lon="-72.223770000">
<ele>0</ele>
<time>2026-09-04T06:38:46Z</time>
</trkpt>
<trkpt lat="46.404550000" lon="-72.222690000">
<ele>0</ele>
<time>2026-09-04T06:38:47Z</time>
</trkpt>
<trkpt lat="46.405090000" lon="-72.222200000">
<ele>0</ele>
<time>2026-09-04T06:38:48Z</time>
</trkpt>
<trkpt lat="46.405390000" lon="-72.221940000">
<ele>0</ele>
<time>2026-09-04T06:38:49Z</time>
</trkpt>
<trkpt lat="46.405860000" lon="-72.221590000">
<ele>0</ele>
<time>2026-09-04T06:38:50Z</time>
</trkpt>
<trkpt lat="46.406020000" lon="-72.221410000">
<ele>0</ele>
<time>2026-09-04T06:38:51Z</time>
</trkpt>
<trkpt lat="46.406490000" lon="-72.220860000">
<ele>0</ele>
<time>2026-09-04T06:38:52Z</time>
</trkpt>
<trkpt lat="46.407110000" lon="-72.220120000">
<ele>0</ele>
<time>2026-09-04T06:38:53Z</time>
</trkpt>
<trkpt lat="46.407260000" lon="-72.219990000">
<ele>0</ele>
<time>2026-09-04T06:38:54Z</time>
</trkpt>
<trkpt lat="46.407840000" lon="-72.219290000">
<ele>0</ele>
<time>2026-09-04T06:38:55Z</time>
</trkpt>
<trkpt lat="46.408200000" lon="-72.218850000">
<ele>0</ele>
<time>2026-09-04T06:38:56Z</time>
</trkpt>
<trkpt lat="46.408650000" lon="-72.218300000">
<ele>0</ele>
<time>2026-09-04T06:38:57Z</time>
</trkpt>
<trkpt lat="46.409030000" lon="-72.217880000">
<ele>0</ele>
<time>2026-09-04T06:38:58Z</time>
</trkpt>
<trkpt lat="46.410120000" lon="-72.216600000">
<ele>0</ele>
<time>2026-09-04T06:38:59Z</time>
</trkpt>
<trkpt lat="46.410950000" lon="-72.215580000">
<ele>0</ele>
<time>2026-09-04T06:39:00Z</time>
</trkpt>
<trkpt lat="46.412050000" lon="-72.214280000">
<ele>0</ele>
<time>2026-09-04T06:39:01Z</time>
</trkpt>
<trkpt lat="46.412310000" lon="-72.213990000">
<ele>0</ele>
<time>2026-09-04T06:39:02Z</time>
</trkpt>
<trkpt lat="46.412640000" lon="-72.213570000">
<ele>0</ele>
<time>2026-09-04T06:39:03Z</time>
</trkpt>
<trkpt lat="46.413170000" lon="-72.212930000">
<ele>0</ele>
<time>2026-09-04T06:39:04Z</time>
</trkpt>
<trkpt lat="46.413560000" lon="-72.212420000">
<ele>0</ele>
<time>2026-09-04T06:39:05Z</time>
</trkpt>
<trkpt lat="46.413800000" lon="-72.212130000">
<ele>0</ele>
<time>2026-09-04T06:39:06Z</time>
</trkpt>
<trkpt lat="46.414020000" lon="-72.211790000">
<ele>0</ele>
<time>2026-09-04T06:39:07Z</time>
</trkpt>
<trkpt lat="46.414550000" lon="-72.211190000">
<ele>0</ele>
<time>2026-09-04T06:39:08Z</time>
</trkpt>
<trkpt lat="46.415020000" lon="-72.210580000">
<ele>0</ele>
<time>2026-09-04T06:39:09Z</time>
</trkpt>
<trkpt lat="46.415600000" lon="-72.209880000">
<ele>0</ele>
<time>2026-09-04T06:39:10Z</time>
</trkpt>
<trkpt lat="46.416940000" lon="-72.208240000">
<ele>0</ele>
<time>2026-09-04T06:39:11Z</time>
</trkpt>
<trkpt lat="46.418090000" lon="-72.206820000">
<ele>0</ele>
<time>2026-09-04T06:39:12Z</time>
</trkpt>
<trkpt lat="46.419020000" lon="-72.205670000">
<ele>0</ele>
<time>2026-09-04T06:39:13Z</time>
</trkpt>
<trkpt lat="46.420050000" lon="-72.204460000">
<ele>0</ele>
<time>2026-09-04T06:39:14Z</time>
</trkpt>
<trkpt lat="46.421060000" lon="-72.203220000">
<ele>0</ele>
<time>2026-09-04T06:39:15Z</time>
</trkpt>
<trkpt lat="46.421420000" lon="-72.202820000">
<ele>0</ele>
<time>2026-09-04T06:39:16Z</time>
</trkpt>
<trkpt lat="46.421650000" lon="-72.202700000">
<ele>0</ele>
<time>2026-09-04T06:39:17Z</time>
</trkpt>
<trkpt lat="46.422130000" lon="-72.202510000">
<ele>0</ele>
<time>2026-09-04T06:39:18Z</time>
</trkpt>
<trkpt lat="46.423980000" lon="-72.202080000">
<ele>0</ele>
<time>2026-09-04T06:39:19Z</time>
</trkpt>
<trkpt lat="46.424870000" lon="-72.201800000">
<ele>0</ele>
<time>2026-09-04T06:39:20Z</time>
</trkpt>
<trkpt lat="46.425280000" lon="-72.201690000">
<ele>0</ele>
<time>2026-09-04T06:39:21Z</time>
</trkpt>
<trkpt lat="46.426220000" lon="-72.201400000">
<ele>0</ele>
<time>2026-09-04T06:39:22Z</time>
</trkpt>
<trkpt lat="46.427420000" lon="-72.201080000">
<ele>0</ele>
<time>2026-09-04T06:39:23Z</time>
</trkpt>
<trkpt lat="46.428220000" lon="-72.200860000">
<ele>0</ele>
<time>2026-09-04T06:39:24Z</time>
</trkpt>
<trkpt lat="46.429340000" lon="-72.200550000">
<ele>0</ele>
<time>2026-09-04T06:39:25Z</time>
</trkpt>
<trkpt lat="46.430670000" lon="-72.200230000">
<ele>0</ele>
<time>2026-09-04T06:39:26Z</time>
</trkpt>
<trkpt lat="46.431650000" lon="-72.199980000">
<ele>0</ele>
<time>2026-09-04T06:39:27Z</time>
</trkpt>
<trkpt lat="46.432500000" lon="-72.199740000">
<ele>0</ele>
<time>2026-09-04T06:39:28Z</time>
</trkpt>
<trkpt lat="46.434160000" lon="-72.199320000">
<ele>0</ele>
<time>2026-09-04T06:39:29Z</time>
</trkpt>
<trkpt lat="46.435530000" lon="-72.198950000">
<ele>0</ele>
<time>2026-09-04T06:39:30Z</time>
</trkpt>
<trkpt lat="46.436640000" lon="-72.198650000">
<ele>0</ele>
<time>2026-09-04T06:39:31Z</time>
</trkpt>
<trkpt lat="46.437290000" lon="-72.198520000">
<ele>0</ele>
<time>2026-09-04T06:39:32Z</time>
</trkpt>
<trkpt lat="46.437630000" lon="-72.198470000">
<ele>0</ele>
<time>2026-09-04T06:39:33Z</time>
</trkpt>
<trkpt lat="46.438100000" lon="-72.198510000">
<ele>0</ele>
<time>2026-09-04T06:39:34Z</time>
</trkpt>
<trkpt lat="46.438330000" lon="-72.198560000">
<ele>0</ele>
<time>2026-09-04T06:39:35Z</time>
</trkpt>
<trkpt lat="46.438620000" lon="-72.198670000">
<ele>0</ele>
<time>2026-09-04T06:39:36Z</time>
</trkpt>
<trkpt lat="46.438830000" lon="-72.198780000">
<ele>0</ele>
<time>2026-09-04T06:39:37Z</time>
</trkpt>
<trkpt lat="46.439130000" lon="-72.199030000">
<ele>0</ele>
<time>2026-09-04T06:39:38Z</time>
</trkpt>
<trkpt lat="46.439320000" lon="-72.199110000">
<ele>0</ele>
<time>2026-09-04T06:39:39Z</time>
</trkpt>
<trkpt lat="46.439590000" lon="-72.199430000">
<ele>0</ele>
<time>2026-09-04T06:39:40Z</time>
</trkpt>
<trkpt lat="46.440010000" lon="-72.199930000">
<ele>0</ele>
<time>2026-09-04T06:39:41Z</time>
</trkpt>
<trkpt lat="46.440290000" lon="-72.200260000">
<ele>0</ele>
<time>2026-09-04T06:39:42Z</time>
</trkpt>
<trkpt lat="46.440570000" lon="-72.200610000">
<ele>0</ele>
<time>2026-09-04T06:39:43Z</time>
</trkpt>
<trkpt lat="46.440890000" lon="-72.200840000">
<ele>0</ele>
<time>2026-09-04T06:39:44Z</time>
</trkpt>
<trkpt lat="46.441100000" lon="-72.200940000">
<ele>0</ele>
<time>2026-09-04T06:39:45Z</time>
</trkpt>
<trkpt lat="46.441680000" lon="-72.201180000">
<ele>0</ele>
<time>2026-09-04T06:39:46Z</time>
</trkpt>
<trkpt lat="46.442820000" lon="-72.200860000">
<ele>0</ele>
<time>2026-09-04T06:39:47Z</time>
</trkpt>
<trkpt lat="46.444590000" lon="-72.200350000">
<ele>0</ele>
<time>2026-09-04T06:39:48Z</time>
</trkpt>
<trkpt lat="46.449670000" lon="-72.198780000">
<ele>0</ele>
<time>2026-09-04T06:39:49Z</time>
</trkpt>
<trkpt lat="46.450260000" lon="-72.198660000">
<ele>0</ele>
<time>2026-09-04T06:39:50Z</time>
</trkpt>
<trkpt lat="46.450970000" lon="-72.198670000">
<ele>0</ele>
<time>2026-09-04T06:39:51Z</time>
</trkpt>
<trkpt lat="46.451070000" lon="-72.198670000">
<ele>0</ele>
<time>2026-09-04T06:39:52Z</time>
</trkpt>
<trkpt lat="46.451320000" lon="-72.198600000">
<ele>0</ele>
<time>2026-09-04T06:39:53Z</time>
</trkpt>
<trkpt lat="46.452350000" lon="-72.198340000">
<ele>0</ele>
<time>2026-09-04T06:39:54Z</time>
</trkpt>
<trkpt lat="46.454440000" lon="-72.197550000">
<ele>0</ele>
<time>2026-09-04T06:39:55Z</time>
</trkpt>
<trkpt lat="46.455540000" lon="-72.197130000">
<ele>0</ele>
<time>2026-09-04T06:39:56Z</time>
</trkpt>
<trkpt lat="46.457810000" lon="-72.196260000">
<ele>0</ele>
<time>2026-09-04T06:39:57Z</time>
</trkpt>
<trkpt lat="46.459410000" lon="-72.195670000">
<ele>0</ele>
<time>2026-09-04T06:39:58Z</time>
</trkpt>
<trkpt lat="46.463160000" lon="-72.194360000">
<ele>0</ele>
<time>2026-09-04T06:39:59Z</time>
</trkpt>
<trkpt lat="46.472240000" lon="-72.191100000">
<ele>0</ele>
<time>2026-09-04T06:40:00Z</time>
</trkpt>
<trkpt lat="46.473040000" lon="-72.190770000">
<ele>0</ele>
<time>2026-09-04T06:40:01Z</time>
</trkpt>
<trkpt lat="46.473650000" lon="-72.190330000">
<ele>0</ele>
<time>2026-09-04T06:40:02Z</time>
</trkpt>
<trkpt lat="46.474630000" lon="-72.189530000">
<ele>0</ele>
<time>2026-09-04T06:40:03Z</time>
</trkpt>
<trkpt lat="46.476330000" lon="-72.188200000">
<ele>0</ele>
<time>2026-09-04T06:40:04Z</time>
</trkpt>
<trkpt lat="46.478300000" lon="-72.186610000">
<ele>0</ele>
<time>2026-09-04T06:40:05Z</time>
</trkpt>
<trkpt lat="46.479330000" lon="-72.185810000">
<ele>0</ele>
<time>2026-09-04T06:40:06Z</time>
</trkpt>
<trkpt lat="46.480300000" lon="-72.185130000">
<ele>0</ele>
<time>2026-09-04T06:40:07Z</time>
</trkpt>
<trkpt lat="46.480790000" lon="-72.184790000">
<ele>0</ele>
<time>2026-09-04T06:40:08Z</time>
</trkpt>
<trkpt lat="46.481030000" lon="-72.184620000">
<ele>0</ele>
<time>2026-09-04T06:40:09Z</time>
</trkpt>
<trkpt lat="46.481720000" lon="-72.184400000">
<ele>0</ele>
<time>2026-09-04T06:40:10Z</time>
</trkpt>
<trkpt lat="46.483500000" lon="-72.184050000">
<ele>0</ele>
<time>2026-09-04T06:40:11Z</time>
</trkpt>
<trkpt lat="46.483790000" lon="-72.183990000">
<ele>0</ele>
<time>2026-09-04T06:40:12Z</time>
</trkpt>
<trkpt lat="46.483920000" lon="-72.183900000">
<ele>0</ele>
<time>2026-09-04T06:40:13Z</time>
</trkpt>
<trkpt lat="46.484020000" lon="-72.183800000">
<ele>0</ele>
<time>2026-09-04T06:40:14Z</time>
</trkpt>
<trkpt lat="46.484190000" lon="-72.183370000">
<ele>0</ele>
<time>2026-09-04T06:40:15Z</time>
</trkpt>
<trkpt lat="46.484510000" lon="-72.183440000">
<ele>0</ele>
<time>2026-09-04T06:40:16Z</time>
</trkpt>
<trkpt lat="46.484510000" lon="-72.183440000">
<ele>0</ele>
<time>2026-09-04T06:40:17Z</time>
</trkpt>
<trkpt lat="46.485000000" lon="-72.183520000">
<ele>0</ele>
<time>2026-09-04T06:40:18Z</time>
</trkpt>
<trkpt lat="46.486470000" lon="-72.183500000">
<ele>0</ele>
<time>2026-09-04T06:40:19Z</time>
</trkpt>
<trkpt lat="46.487280000" lon="-72.183570000">
<ele>0</ele>
<time>2026-09-04T06:40:20Z</time>
</trkpt>
<trkpt lat="46.487370000" lon="-72.183260000">
<ele>0</ele>
<time>2026-09-04T06:40:21Z</time>
</trkpt>
<trkpt lat="46.487370000" lon="-72.183260000">
<ele>0</ele>
<time>2026-09-04T06:40:22Z</time>
</trkpt>
<trkpt lat="46.487550000" lon="-72.182940000">
<ele>0</ele>
<time>2026-09-04T06:40:23Z</time>
</trkpt>
<trkpt lat="46.487850000" lon="-72.182660000">
<ele>0</ele>
<time>2026-09-04T06:40:24Z</time>
</trkpt>
<trkpt lat="46.488220000" lon="-72.182510000">
<ele>0</ele>
<time>2026-09-04T06:40:25Z</time>
</trkpt>
<trkpt lat="46.489270000" lon="-72.182150000">
<ele>0</ele>
<time>2026-09-04T06:40:26Z</time>
</trkpt>
<trkpt lat="46.489630000" lon="-72.182030000">
<ele>0</ele>
<time>2026-09-04T06:40:27Z</time>
</trkpt>
<trkpt lat="46.489810000" lon="-72.182040000">
<ele>0</ele>
<time>2026-09-04T06:40:28Z</time>
</trkpt>
<trkpt lat="46.490170000" lon="-72.182190000">
<ele>0</ele>
<time>2026-09-04T06:40:29Z</time>
</trkpt>
<trkpt lat="46.490270000" lon="-72.182230000">
<ele>0</ele>
<time>2026-09-04T06:40:30Z</time>
</trkpt>
<trkpt lat="46.490340000" lon="-72.182220000">
<ele>0</ele>
<time>2026-09-04T06:40:31Z</time>
</trkpt>
<trkpt lat="46.490490000" lon="-72.182210000">
<ele>0</ele>
<time>2026-09-04T06:40:32Z</time>
</trkpt>
<trkpt lat="46.490620000" lon="-72.182120000">
<ele>0</ele>
<time>2026-09-04T06:40:33Z</time>
</trkpt>
<trkpt lat="46.490920000" lon="-72.181670000">
<ele>0</ele>
<time>2026-09-04T06:40:34Z</time>
</trkpt>
<trkpt lat="46.491660000" lon="-72.180540000">
<ele>0</ele>
<time>2026-09-04T06:40:35Z</time>
</trkpt>
<trkpt lat="46.494220000" lon="-72.176700000">
<ele>0</ele>
<time>2026-09-04T06:40:36Z</time>
</trkpt>
<trkpt lat="46.494550000" lon="-72.176150000">
<ele>0</ele>
<time>2026-09-04T06:40:37Z</time>
</trkpt>
<trkpt lat="46.494750000" lon="-72.175810000">
<ele>0</ele>
<time>2026-09-04T06:40:38Z</time>
</trkpt>
<trkpt lat="46.495080000" lon="-72.175290000">
<ele>0</ele>
<time>2026-09-04T06:40:39Z</time>
</trkpt>
<trkpt lat="46.495420000" lon="-72.174800000">
<ele>0</ele>
<time>2026-09-04T06:40:40Z</time>
</trkpt>
<trkpt lat="46.495780000" lon="-72.174260000">
<ele>0</ele>
<time>2026-09-04T06:40:41Z</time>
</trkpt>
<trkpt lat="46.495890000" lon="-72.174420000">
<ele>0</ele>
<time>2026-09-04T06:40:42Z</time>
</trkpt>
<trkpt lat="46.495890000" lon="-72.174420000">
<ele>0</ele>
<time>2026-09-04T06:40:43Z</time>
</trkpt>
<trkpt lat="46.496380000" lon="-72.175110000">
<ele>0</ele>
<time>2026-09-04T06:40:44Z</time>
</trkpt>
<trkpt lat="46.497170000" lon="-72.176180000">
<ele>0</ele>
<time>2026-09-04T06:40:45Z</time>
</trkpt>
<trkpt lat="46.498360000" lon="-72.177810000">
<ele>0</ele>
<time>2026-09-04T06:40:46Z</time>
</trkpt>
<trkpt lat="46.500720000" lon="-72.181040000">
<ele>0</ele>
<time>2026-09-04T06:40:47Z</time>
</trkpt>
<trkpt lat="46.501700000" lon="-72.182310000">
<ele>0</ele>
<time>2026-09-04T06:40:48Z</time>
</trkpt>
<trkpt lat="46.502210000" lon="-72.183040000">
<ele>0</ele>
<time>2026-09-04T06:40:49Z</time>
</trkpt>
<trkpt lat="46.503120000" lon="-72.184310000">
<ele>0</ele>
<time>2026-09-04T06:40:50Z</time>
</trkpt>
<trkpt lat="46.504420000" lon="-72.186090000">
<ele>0</ele>
<time>2026-09-04T06:40:51Z</time>
</trkpt>
<trkpt lat="46.507050000" lon="-72.189670000">
<ele>0</ele>
<time>2026-09-04T06:40:52Z</time>
</trkpt>
<trkpt lat="46.508760000" lon="-72.192000000">
<ele>0</ele>
<time>2026-09-04T06:40:53Z</time>
</trkpt>
<trkpt lat="46.510040000" lon="-72.193720000">
<ele>0</ele>
<time>2026-09-04T06:40:54Z</time>
</trkpt>
<trkpt lat="46.510300000" lon="-72.192700000">
<ele>0</ele>
<time>2026-09-04T06:40:55Z</time>
</trkpt>
<trkpt lat="46.510300000" lon="-72.192700000">
<ele>0</ele>
<time>2026-09-04T06:40:56Z</time>
</trkpt>
<trkpt lat="46.510730000" lon="-72.191290000">
<ele>0</ele>
<time>2026-09-04T06:40:57Z</time>
</trkpt>
<trkpt lat="46.511030000" lon="-72.190420000">
<ele>0</ele>
<time>2026-09-04T06:40:58Z</time>
</trkpt>
<trkpt lat="46.511410000" lon="-72.189470000">
<ele>0</ele>
<time>2026-09-04T06:40:59Z</time>
</trkpt>
<trkpt lat="46.511790000" lon="-72.188590000">
<ele>0</ele>
<time>2026-09-04T06:41:00Z</time>
</trkpt>
<trkpt lat="46.512360000" lon="-72.187420000">
<ele>0</ele>
<time>2026-09-04T06:41:01Z</time>
</trkpt>
<trkpt lat="46.512880000" lon="-72.186470000">
<ele>0</ele>
<time>2026-09-04T06:41:02Z</time>
</trkpt>
<trkpt lat="46.513470000" lon="-72.185520000">
<ele>0</ele>
<time>2026-09-04T06:41:03Z</time>
</trkpt>
<trkpt lat="46.513810000" lon="-72.185020000">
<ele>0</ele>
<time>2026-09-04T06:41:04Z</time>
</trkpt>
<trkpt lat="46.514250000" lon="-72.184390000">
<ele>0</ele>
<time>2026-09-04T06:41:05Z</time>
</trkpt>
<trkpt lat="46.514590000" lon="-72.183960000">
<ele>0</ele>
<time>2026-09-04T06:41:06Z</time>
</trkpt>
<trkpt lat="46.514780000" lon="-72.183730000">
<ele>0</ele>
<time>2026-09-04T06:41:07Z</time>
</trkpt>
<trkpt lat="46.516170000" lon="-72.182190000">
<ele>0</ele>
<time>2026-09-04T06:41:08Z</time>
</trkpt>
<trkpt lat="46.517530000" lon="-72.180750000">
<ele>0</ele>
<time>2026-09-04T06:41:09Z</time>
</trkpt>
<trkpt lat="46.522510000" lon="-72.175480000">
<ele>0</ele>
<time>2026-09-04T06:41:10Z</time>
</trkpt>
<trkpt lat="46.524270000" lon="-72.173610000">
<ele>0</ele>
<time>2026-09-04T06:41:11Z</time>
</trkpt>
<trkpt lat="46.525090000" lon="-72.172780000">
<ele>0</ele>
<time>2026-09-04T06:41:12Z</time>
</trkpt>
<trkpt lat="46.525620000" lon="-72.172350000">
<ele>0</ele>
<time>2026-09-04T06:41:13Z</time>
</trkpt>
<trkpt lat="46.526940000" lon="-72.171470000">
<ele>0</ele>
<time>2026-09-04T06:41:14Z</time>
</trkpt>
<trkpt lat="46.528080000" lon="-72.170700000">
<ele>0</ele>
<time>2026-09-04T06:41:15Z</time>
</trkpt>
<trkpt lat="46.530620000" lon="-72.169020000">
<ele>0</ele>
<time>2026-09-04T06:41:16Z</time>
</trkpt>
<trkpt lat="46.535030000" lon="-72.166070000">
<ele>0</ele>
<time>2026-09-04T06:41:17Z</time>
</trkpt>
<trkpt lat="46.535470000" lon="-72.165780000">
<ele>0</ele>
<time>2026-09-04T06:41:18Z</time>
</trkpt>
<trkpt lat="46.536000000" lon="-72.165400000">
<ele>0</ele>
<time>2026-09-04T06:41:19Z</time>
</trkpt>
<trkpt lat="46.536390000" lon="-72.165020000">
<ele>0</ele>
<time>2026-09-04T06:41:20Z</time>
</trkpt>
<trkpt lat="46.536650000" lon="-72.164690000">
<ele>0</ele>
<time>2026-09-04T06:41:21Z</time>
</trkpt>
<trkpt lat="46.536900000" lon="-72.164270000">
<ele>0</ele>
<time>2026-09-04T06:41:22Z</time>
</trkpt>
<trkpt lat="46.537660000" lon="-72.162790000">
<ele>0</ele>
<time>2026-09-04T06:41:23Z</time>
</trkpt>
<trkpt lat="46.538230000" lon="-72.161610000">
<ele>0</ele>
<time>2026-09-04T06:41:24Z</time>
</trkpt>
<trkpt lat="46.538490000" lon="-72.160980000">
<ele>0</ele>
<time>2026-09-04T06:41:25Z</time>
</trkpt>
<trkpt lat="46.538650000" lon="-72.160490000">
<ele>0</ele>
<time>2026-09-04T06:41:26Z</time>
</trkpt>
<trkpt lat="46.538980000" lon="-72.159310000">
<ele>0</ele>
<time>2026-09-04T06:41:27Z</time>
</trkpt>
<trkpt lat="46.539490000" lon="-72.157340000">
<ele>0</ele>
<time>2026-09-04T06:41:28Z</time>
</trkpt>
<trkpt lat="46.539810000" lon="-72.156160000">
<ele>0</ele>
<time>2026-09-04T06:41:29Z</time>
</trkpt>
<trkpt lat="46.540220000" lon="-72.154960000">
<ele>0</ele>
<time>2026-09-04T06:41:30Z</time>
</trkpt>
<trkpt lat="46.540760000" lon="-72.153640000">
<ele>0</ele>
<time>2026-09-04T06:41:31Z</time>
</trkpt>
<trkpt lat="46.542210000" lon="-72.150440000">
<ele>0</ele>
<time>2026-09-04T06:41:32Z</time>
</trkpt>
<trkpt lat="46.542950000" lon="-72.148740000">
<ele>0</ele>
<time>2026-09-04T06:41:33Z</time>
</trkpt>
<trkpt lat="46.543290000" lon="-72.147840000">
<ele>0</ele>
<time>2026-09-04T06:41:34Z</time>
</trkpt>
<trkpt lat="46.543520000" lon="-72.147090000">
<ele>0</ele>
<time>2026-09-04T06:41:35Z</time>
</trkpt>
<trkpt lat="46.543790000" lon="-72.146130000">
<ele>0</ele>
<time>2026-09-04T06:41:36Z</time>
</trkpt>
<trkpt lat="46.543940000" lon="-72.145590000">
<ele>0</ele>
<time>2026-09-04T06:41:37Z</time>
</trkpt>
<trkpt lat="46.544190000" lon="-72.144470000">
<ele>0</ele>
<time>2026-09-04T06:41:38Z</time>
</trkpt>
<trkpt lat="46.544960000" lon="-72.141150000">
<ele>0</ele>
<time>2026-09-04T06:41:39Z</time>
</trkpt>
<trkpt lat="46.545210000" lon="-72.140190000">
<ele>0</ele>
<time>2026-09-04T06:41:40Z</time>
</trkpt>
<trkpt lat="46.545850000" lon="-72.138230000">
<ele>0</ele>
<time>2026-09-04T06:41:41Z</time>
</trkpt>
<trkpt lat="46.546460000" lon="-72.136230000">
<ele>0</ele>
<time>2026-09-04T06:41:42Z</time>
</trkpt>
<trkpt lat="46.546970000" lon="-72.134560000">
<ele>0</ele>
<time>2026-09-04T06:41:43Z</time>
</trkpt>
<trkpt lat="46.547420000" lon="-72.133130000">
<ele>0</ele>
<time>2026-09-04T06:41:44Z</time>
</trkpt>
<trkpt lat="46.547870000" lon="-72.132000000">
<ele>0</ele>
<time>2026-09-04T06:41:45Z</time>
</trkpt>
<trkpt lat="46.548040000" lon="-72.131600000">
<ele>0</ele>
<time>2026-09-04T06:41:46Z</time>
</trkpt>
<trkpt lat="46.549290000" lon="-72.128980000">
<ele>0</ele>
<time>2026-09-04T06:41:47Z</time>
</trkpt>
<trkpt lat="46.549880000" lon="-72.127680000">
<ele>0</ele>
<time>2026-09-04T06:41:48Z</time>
</trkpt>
<trkpt lat="46.550440000" lon="-72.126630000">
<ele>0</ele>
<time>2026-09-04T06:41:49Z</time>
</trkpt>
<trkpt lat="46.551430000" lon="-72.125030000">
<ele>0</ele>
<time>2026-09-04T06:41:50Z</time>
</trkpt>
<trkpt lat="46.551710000" lon="-72.124630000">
<ele>0</ele>
<time>2026-09-04T06:41:51Z</time>
</trkpt>
<trkpt lat="46.551900000" lon="-72.124380000">
<ele>0</ele>
<time>2026-09-04T06:41:52Z</time>
</trkpt>
<trkpt lat="46.552160000" lon="-72.124140000">
<ele>0</ele>
<time>2026-09-04T06:41:53Z</time>
</trkpt>
<trkpt lat="46.552730000" lon="-72.123640000">
<ele>0</ele>
<time>2026-09-04T06:41:54Z</time>
</trkpt>
<trkpt lat="46.553020000" lon="-72.123370000">
<ele>0</ele>
<time>2026-09-04T06:41:55Z</time>
</trkpt>
<trkpt lat="46.553440000" lon="-72.122910000">
<ele>0</ele>
<time>2026-09-04T06:41:56Z</time>
</trkpt>
<trkpt lat="46.553740000" lon="-72.122540000">
<ele>0</ele>
<time>2026-09-04T06:41:57Z</time>
</trkpt>
<trkpt lat="46.554000000" lon="-72.122100000">
<ele>0</ele>
<time>2026-09-04T06:41:58Z</time>
</trkpt>
<trkpt lat="46.554190000" lon="-72.121750000">
<ele>0</ele>
<time>2026-09-04T06:41:59Z</time>
</trkpt>
<trkpt lat="46.554670000" lon="-72.120740000">
<ele>0</ele>
<time>2026-09-04T06:42:00Z</time>
</trkpt>
<trkpt lat="46.554840000" lon="-72.120320000">
<ele>0</ele>
<time>2026-09-04T06:42:01Z</time>
</trkpt>
<trkpt lat="46.554990000" lon="-72.119820000">
<ele>0</ele>
<time>2026-09-04T06:42:02Z</time>
</trkpt>
<trkpt lat="46.555620000" lon="-72.117650000">
<ele>0</ele>
<time>2026-09-04T06:42:03Z</time>
</trkpt>
<trkpt lat="46.556130000" lon="-72.115910000">
<ele>0</ele>
<time>2026-09-04T06:42:04Z</time>
</trkpt>
<trkpt lat="46.556360000" lon="-72.115350000">
<ele>0</ele>
<time>2026-09-04T06:42:05Z</time>
</trkpt>
<trkpt lat="46.556760000" lon="-72.114660000">
<ele>0</ele>
<time>2026-09-04T06:42:06Z</time>
</trkpt>
<trkpt lat="46.557310000" lon="-72.113810000">
<ele>0</ele>
<time>2026-09-04T06:42:07Z</time>
</trkpt>
<trkpt lat="46.557260000" lon="-72.113730000">
<ele>0</ele>
<time>2026-09-04T06:42:08Z</time>
</trkpt>
<trkpt lat="46.557260000" lon="-72.113730000">
<ele>0</ele>
<time>2026-09-04T06:42:09Z</time>
</trkpt>
<trkpt lat="46.555720000" lon="-72.111590000">
<ele>0</ele>
<time>2026-09-04T06:42:10Z</time>
</trkpt>
<trkpt lat="46.553660000" lon="-72.108810000">
<ele>0</ele>
<time>2026-09-04T06:42:11Z</time>
</trkpt>
<trkpt lat="46.551560000" lon="-72.106070000">
<ele>0</ele>
<time>2026-09-04T06:42:12Z</time>
</trkpt>
<trkpt lat="46.549230000" lon="-72.103010000">
<ele>0</ele>
<time>2026-09-04T06:42:13Z</time>
</trkpt>
<trkpt lat="46.547900000" lon="-72.101240000">
<ele>0</ele>
<time>2026-09-04T06:42:14Z</time>
</trkpt>
<trkpt lat="46.546970000" lon="-72.100000000">
<ele>0</ele>
<time>2026-09-04T06:42:15Z</time>
</trkpt>
<trkpt lat="46.542850000" lon="-72.094550000">
<ele>0</ele>
<time>2026-09-04T06:42:16Z</time>
</trkpt>
<trkpt lat="46.539880000" lon="-72.090620000">
<ele>0</ele>
<time>2026-09-04T06:42:17Z</time>
</trkpt>
<trkpt lat="46.539180000" lon="-72.089790000">
<ele>0</ele>
<time>2026-09-04T06:42:18Z</time>
</trkpt>
<trkpt lat="46.538720000" lon="-72.089310000">
<ele>0</ele>
<time>2026-09-04T06:42:19Z</time>
</trkpt>
<trkpt lat="46.538430000" lon="-72.089090000">
<ele>0</ele>
<time>2026-09-04T06:42:20Z</time>
</trkpt>
<trkpt lat="46.537280000" lon="-72.088300000">
<ele>0</ele>
<time>2026-09-04T06:42:21Z</time>
</trkpt>
<trkpt lat="46.536580000" lon="-72.087800000">
<ele>0</ele>
<time>2026-09-04T06:42:22Z</time>
</trkpt>
<trkpt lat="46.536090000" lon="-72.087350000">
<ele>0</ele>
<time>2026-09-04T06:42:23Z</time>
</trkpt>
<trkpt lat="46.535620000" lon="-72.086820000">
<ele>0</ele>
<time>2026-09-04T06:42:24Z</time>
</trkpt>
<trkpt lat="46.535200000" lon="-72.086300000">
<ele>0</ele>
<time>2026-09-04T06:42:25Z</time>
</trkpt>
<trkpt lat="46.534420000" lon="-72.085220000">
<ele>0</ele>
<time>2026-09-04T06:42:26Z</time>
</trkpt>
<trkpt lat="46.533750000" lon="-72.084300000">
<ele>0</ele>
<time>2026-09-04T06:42:27Z</time>
</trkpt>
<trkpt lat="46.533360000" lon="-72.083760000">
<ele>0</ele>
<time>2026-09-04T06:42:28Z</time>
</trkpt>
<trkpt lat="46.531800000" lon="-72.081590000">
<ele>0</ele>
<time>2026-09-04T06:42:29Z</time>
</trkpt>
<trkpt lat="46.531400000" lon="-72.081060000">
<ele>0</ele>
<time>2026-09-04T06:42:30Z</time>
</trkpt>
<trkpt lat="46.528530000" lon="-72.077140000">
<ele>0</ele>
<time>2026-09-04T06:42:31Z</time>
</trkpt>
<trkpt lat="46.524590000" lon="-72.071750000">
<ele>0</ele>
<time>2026-09-04T06:42:32Z</time>
</trkpt>
<trkpt lat="46.523240000" lon="-72.069910000">
<ele>0</ele>
<time>2026-09-04T06:42:33Z</time>
</trkpt>
<trkpt lat="46.521590000" lon="-72.067620000">
<ele>0</ele>
<time>2026-09-04T06:42:34Z</time>
</trkpt>
<trkpt lat="46.520550000" lon="-72.066170000">
<ele>0</ele>
<time>2026-09-04T06:42:35Z</time>
</trkpt>
<trkpt lat="46.520400000" lon="-72.066400000">
<ele>0</ele>
<time>2026-09-04T06:42:36Z</time>
</trkpt>
<trkpt lat="46.520400000" lon="-72.066400000">
<ele>0</ele>
<time>2026-09-04T06:42:37Z</time>
</trkpt>
<trkpt lat="46.519330000" lon="-72.068010000">
<ele>0</ele>
<time>2026-09-04T06:42:38Z</time>
</trkpt>
<trkpt lat="46.519230000" lon="-72.067870000">
<ele>0</ele>
<time>2026-09-04T06:42:39Z</time>
</trkpt>
<trkpt lat="46.519230000" lon="-72.067870000">
<ele>0</ele>
<time>2026-09-04T06:42:40Z</time>
</trkpt>
<trkpt lat="46.517980000" lon="-72.066150000">
<ele>0</ele>
<time>2026-09-04T06:42:41Z</time>
</trkpt>
<trkpt lat="46.517930000" lon="-72.066270000">
<ele>0</ele>
<time>2026-09-04T06:42:42Z</time>
</trkpt>
<trkpt lat="46.517930000" lon="-72.066270000">
<ele>0</ele>
<time>2026-09-04T06:42:43Z</time>
</trkpt>
<trkpt lat="46.517390000" lon="-72.067560000">
<ele>0</ele>
<time>2026-09-04T06:42:44Z</time>
</trkpt>
<trkpt lat="46.516920000" lon="-72.068650000">
<ele>0</ele>
<time>2026-09-04T06:42:45Z</time>
</trkpt>
<trkpt lat="46.515450000" lon="-72.072230000">
<ele>0</ele>
<time>2026-09-04T06:42:46Z</time>
</trkpt>
<trkpt lat="46.512690000" lon="-72.078790000">
<ele>0</ele>
<time>2026-09-04T06:42:47Z</time>
</trkpt>
<trkpt lat="46.511020000" lon="-72.082730000">
<ele>0</ele>
<time>2026-09-04T06:42:48Z</time>
</trkpt>
<trkpt lat="46.510460000" lon="-72.084090000">
<ele>0</ele>
<time>2026-09-04T06:42:49Z</time>
</trkpt>
<trkpt lat="46.508470000" lon="-72.088800000">
<ele>0</ele>
<time>2026-09-04T06:42:50Z</time>
</trkpt>
<trkpt lat="46.506240000" lon="-72.094190000">
<ele>0</ele>
<time>2026-09-04T06:42:51Z</time>
</trkpt>
<trkpt lat="46.505610000" lon="-72.095760000">
<ele>0</ele>
<time>2026-09-04T06:42:52Z</time>
</trkpt>
<trkpt lat="46.504990000" lon="-72.097170000">
<ele>0</ele>
<time>2026-09-04T06:42:53Z</time>
</trkpt>
<trkpt lat="46.503990000" lon="-72.099540000">
<ele>0</ele>
<time>2026-09-04T06:42:54Z</time>
</trkpt>
<trkpt lat="46.502920000" lon="-72.102080000">
<ele>0</ele>
<time>2026-09-04T06:42:55Z</time>
</trkpt>
<trkpt lat="46.502550000" lon="-72.102860000">
<ele>0</ele>
<time>2026-09-04T06:42:56Z</time>
</trkpt>
<trkpt lat="46.501880000" lon="-72.104140000">
<ele>0</ele>
<time>2026-09-04T06:42:57Z</time>
</trkpt>
<trkpt lat="46.501290000" lon="-72.105230000">
<ele>0</ele>
<time>2026-09-04T06:42:58Z</time>
</trkpt>
<trkpt lat="46.500580000" lon="-72.106640000">
<ele>0</ele>
<time>2026-09-04T06:42:59Z</time>
</trkpt>
<trkpt lat="46.500140000" lon="-72.107520000">
<ele>0</ele>
<time>2026-09-04T06:43:00Z</time>
</trkpt>
<trkpt lat="46.499800000" lon="-72.108110000">
<ele>0</ele>
<time>2026-09-04T06:43:01Z</time>
</trkpt>
<trkpt lat="46.499400000" lon="-72.108830000">
<ele>0</ele>
<time>2026-09-04T06:43:02Z</time>
</trkpt>
<trkpt lat="46.499260000" lon="-72.109050000">
<ele>0</ele>
<time>2026-09-04T06:43:03Z</time>
</trkpt>
<trkpt lat="46.498980000" lon="-72.109460000">
<ele>0</ele>
<time>2026-09-04T06:43:04Z</time>
</trkpt>
<trkpt lat="46.498720000" lon="-72.109680000">
<ele>0</ele>
<time>2026-09-04T06:43:05Z</time>
</trkpt>
<trkpt lat="46.498180000" lon="-72.110000000">
<ele>0</ele>
<time>2026-09-04T06:43:06Z</time>
</trkpt>
<trkpt lat="46.497740000" lon="-72.110210000">
<ele>0</ele>
<time>2026-09-04T06:43:07Z</time>
</trkpt>
<trkpt lat="46.497540000" lon="-72.110340000">
<ele>0</ele>
<time>2026-09-04T06:43:08Z</time>
</trkpt>
<trkpt lat="46.497250000" lon="-72.110550000">
<ele>0</ele>
<time>2026-09-04T06:43:09Z</time>
</trkpt>
<trkpt lat="46.496910000" lon="-72.110930000">
<ele>0</ele>
<time>2026-09-04T06:43:10Z</time>
</trkpt>
<trkpt lat="46.496380000" lon="-72.111650000">
<ele>0</ele>
<time>2026-09-04T06:43:11Z</time>
</trkpt>
<trkpt lat="46.495760000" lon="-72.112580000">
<ele>0</ele>
<time>2026-09-04T06:43:12Z</time>
</trkpt>
<trkpt lat="46.494450000" lon="-72.114500000">
<ele>0</ele>
<time>2026-09-04T06:43:13Z</time>
</trkpt>
<trkpt lat="46.491600000" lon="-72.118670000">
<ele>0</ele>
<time>2026-09-04T06:43:14Z</time>
</trkpt>
<trkpt lat="46.489360000" lon="-72.121850000">
<ele>0</ele>
<time>2026-09-04T06:43:15Z</time>
</trkpt>
<trkpt lat="46.486650000" lon="-72.125650000">
<ele>0</ele>
<time>2026-09-04T06:43:16Z</time>
</trkpt>
<trkpt lat="46.485230000" lon="-72.127630000">
<ele>0</ele>
<time>2026-09-04T06:43:17Z</time>
</trkpt>
<trkpt lat="46.484970000" lon="-72.128050000">
<ele>0</ele>
<time>2026-09-04T06:43:18Z</time>
</trkpt>
<trkpt lat="46.484710000" lon="-72.128540000">
<ele>0</ele>
<time>2026-09-04T06:43:19Z</time>
</trkpt>
<trkpt lat="46.484550000" lon="-72.128930000">
<ele>0</ele>
<time>2026-09-04T06:43:20Z</time>
</trkpt>
<trkpt lat="46.484330000" lon="-72.129610000">
<ele>0</ele>
<time>2026-09-04T06:43:21Z</time>
</trkpt>
<trkpt lat="46.483700000" lon="-72.131870000">
<ele>0</ele>
<time>2026-09-04T06:43:22Z</time>
</trkpt>
<trkpt lat="46.483360000" lon="-72.133090000">
<ele>0</ele>
<time>2026-09-04T06:43:23Z</time>
</trkpt>
<trkpt lat="46.483160000" lon="-72.133720000">
<ele>0</ele>
<time>2026-09-04T06:43:24Z</time>
</trkpt>
<trkpt lat="46.482730000" lon="-72.134840000">
<ele>0</ele>
<time>2026-09-04T06:43:25Z</time>
</trkpt>
<trkpt lat="46.482140000" lon="-72.136330000">
<ele>0</ele>
<time>2026-09-04T06:43:26Z</time>
</trkpt>
<trkpt lat="46.481390000" lon="-72.138250000">
<ele>0</ele>
<time>2026-09-04T06:43:27Z</time>
</trkpt>
<trkpt lat="46.480690000" lon="-72.139980000">
<ele>0</ele>
<time>2026-09-04T06:43:28Z</time>
</trkpt>
<trkpt lat="46.480430000" lon="-72.140560000">
<ele>0</ele>
<time>2026-09-04T06:43:29Z</time>
</trkpt>
<trkpt lat="46.480050000" lon="-72.141290000">
<ele>0</ele>
<time>2026-09-04T06:43:30Z</time>
</trkpt>
<trkpt lat="46.477860000" lon="-72.145110000">
<ele>0</ele>
<time>2026-09-04T06:43:31Z</time>
</trkpt>
<trkpt lat="46.477140000" lon="-72.146420000">
<ele>0</ele>
<time>2026-09-04T06:43:32Z</time>
</trkpt>
<trkpt lat="46.476400000" lon="-72.147560000">
<ele>0</ele>
<time>2026-09-04T06:43:33Z</time>
</trkpt>
<trkpt lat="46.475850000" lon="-72.148250000">
<ele>0</ele>
<time>2026-09-04T06:43:34Z</time>
</trkpt>
<trkpt lat="46.474940000" lon="-72.149280000">
<ele>0</ele>
<time>2026-09-04T06:43:35Z</time>
</trkpt>
<trkpt lat="46.474080000" lon="-72.150280000">
<ele>0</ele>
<time>2026-09-04T06:43:36Z</time>
</trkpt>
<trkpt lat="46.473700000" lon="-72.150760000">
<ele>0</ele>
<time>2026-09-04T06:43:37Z</time>
</trkpt>
<trkpt lat="46.473000000" lon="-72.151820000">
<ele>0</ele>
<time>2026-09-04T06:43:38Z</time>
</trkpt>
<trkpt lat="46.471840000" lon="-72.153540000">
<ele>0</ele>
<time>2026-09-04T06:43:39Z</time>
</trkpt>
<trkpt lat="46.470180000" lon="-72.156010000">
<ele>0</ele>
<time>2026-09-04T06:43:40Z</time>
</trkpt>
<trkpt lat="46.468680000" lon="-72.158270000">
<ele>0</ele>
<time>2026-09-04T06:43:41Z</time>
</trkpt>
<trkpt lat="46.468100000" lon="-72.159120000">
<ele>0</ele>
<time>2026-09-04T06:43:42Z</time>
</trkpt>
<trkpt lat="46.466370000" lon="-72.161540000">
<ele>0</ele>
<time>2026-09-04T06:43:43Z</time>
</trkpt>
<trkpt lat="46.465230000" lon="-72.163190000">
<ele>0</ele>
<time>2026-09-04T06:43:44Z</time>
</trkpt>
<trkpt lat="46.464960000" lon="-72.163580000">
<ele>0</ele>
<time>2026-09-04T06:43:45Z</time>
</trkpt>
<trkpt lat="46.464540000" lon="-72.164150000">
<ele>0</ele>
<time>2026-09-04T06:43:46Z</time>
</trkpt>
<trkpt lat="46.464170000" lon="-72.164680000">
<ele>0</ele>
<time>2026-09-04T06:43:47Z</time>
</trkpt>
<trkpt lat="46.463900000" lon="-72.165000000">
<ele>0</ele>
<time>2026-09-04T06:43:48Z</time>
</trkpt>
<trkpt lat="46.463740000" lon="-72.165150000">
<ele>0</ele>
<time>2026-09-04T06:43:49Z</time>
</trkpt>
<trkpt lat="46.463430000" lon="-72.165410000">
<ele>0</ele>
<time>2026-09-04T06:43:50Z</time>
</trkpt>
<trkpt lat="46.462780000" lon="-72.165920000">
<ele>0</ele>
<time>2026-09-04T06:43:51Z</time>
</trkpt>
<trkpt lat="46.460570000" lon="-72.167630000">
<ele>0</ele>
<time>2026-09-04T06:43:52Z</time>
</trkpt>
<trkpt lat="46.458670000" lon="-72.169100000">
<ele>0</ele>
<time>2026-09-04T06:43:53Z</time>
</trkpt>
<trkpt lat="46.458040000" lon="-72.169530000">
<ele>0</ele>
<time>2026-09-04T06:43:54Z</time>
</trkpt>
<trkpt lat="46.457650000" lon="-72.169710000">
<ele>0</ele>
<time>2026-09-04T06:43:55Z</time>
</trkpt>
<trkpt lat="46.456600000" lon="-72.170090000">
<ele>0</ele>
<time>2026-09-04T06:43:56Z</time>
</trkpt>
<trkpt lat="46.453680000" lon="-72.171110000">
<ele>0</ele>
<time>2026-09-04T06:43:57Z</time>
</trkpt>
<trkpt lat="46.452460000" lon="-72.171550000">
<ele>0</ele>
<time>2026-09-04T06:43:58Z</time>
</trkpt>
<trkpt lat="46.450360000" lon="-72.172300000">
<ele>0</ele>
<time>2026-09-04T06:43:59Z</time>
</trkpt>
<trkpt lat="46.448790000" lon="-72.172870000">
<ele>0</ele>
<time>2026-09-04T06:44:00Z</time>
</trkpt>
<trkpt lat="46.447230000" lon="-72.173460000">
<ele>0</ele>
<time>2026-09-04T06:44:01Z</time>
</trkpt>
<trkpt lat="46.444780000" lon="-72.174330000">
<ele>0</ele>
<time>2026-09-04T06:44:02Z</time>
</trkpt>
<trkpt lat="46.442780000" lon="-72.175010000">
<ele>0</ele>
<time>2026-09-04T06:44:03Z</time>
</trkpt>
<trkpt lat="46.442060000" lon="-72.175250000">
<ele>0</ele>
<time>2026-09-04T06:44:04Z</time>
</trkpt>
<trkpt lat="46.440440000" lon="-72.175810000">
<ele>0</ele>
<time>2026-09-04T06:44:05Z</time>
</trkpt>
<trkpt lat="46.436890000" lon="-72.177080000">
<ele>0</ele>
<time>2026-09-04T06:44:06Z</time>
</trkpt>
<trkpt lat="46.436320000" lon="-72.177290000">
<ele>0</ele>
<time>2026-09-04T06:44:07Z</time>
</trkpt>
<trkpt lat="46.435810000" lon="-72.177400000">
<ele>0</ele>
<time>2026-09-04T06:44:08Z</time>
</trkpt>
<trkpt lat="46.435130000" lon="-72.177390000">
<ele>0</ele>
<time>2026-09-04T06:44:09Z</time>
</trkpt>
<trkpt lat="46.434700000" lon="-72.177330000">
<ele>0</ele>
<time>2026-09-04T06:44:10Z</time>
</trkpt>
<trkpt lat="46.434410000" lon="-72.177320000">
<ele>0</ele>
<time>2026-09-04T06:44:11Z</time>
</trkpt>
<trkpt lat="46.434240000" lon="-72.177320000">
<ele>0</ele>
<time>2026-09-04T06:44:12Z</time>
</trkpt>
<trkpt lat="46.433870000" lon="-72.177400000">
<ele>0</ele>
<time>2026-09-04T06:44:13Z</time>
</trkpt>
<trkpt lat="46.432110000" lon="-72.177920000">
<ele>0</ele>
<time>2026-09-04T06:44:14Z</time>
</trkpt>
<trkpt lat="46.430480000" lon="-72.178390000">
<ele>0</ele>
<time>2026-09-04T06:44:15Z</time>
</trkpt>
<trkpt lat="46.428370000" lon="-72.179020000">
<ele>0</ele>
<time>2026-09-04T06:44:16Z</time>
</trkpt>
<trkpt lat="46.428170000" lon="-72.179060000">
<ele>0</ele>
<time>2026-09-04T06:44:17Z</time>
</trkpt>
<trkpt lat="46.427910000" lon="-72.179060000">
<ele>0</ele>
<time>2026-09-04T06:44:18Z</time>
</trkpt>
<trkpt lat="46.427510000" lon="-72.178980000">
<ele>0</ele>
<time>2026-09-04T06:44:19Z</time>
</trkpt>
<trkpt lat="46.426770000" lon="-72.178850000">
<ele>0</ele>
<time>2026-09-04T06:44:20Z</time>
</trkpt>
<trkpt lat="46.426430000" lon="-72.178810000">
<ele>0</ele>
<time>2026-09-04T06:44:21Z</time>
</trkpt>
<trkpt lat="46.426340000" lon="-72.178820000">
<ele>0</ele>
<time>2026-09-04T06:44:22Z</time>
</trkpt>
<trkpt lat="46.426110000" lon="-72.178920000">
<ele>0</ele>
<time>2026-09-04T06:44:23Z</time>
</trkpt>
<trkpt lat="46.425780000" lon="-72.179130000">
<ele>0</ele>
<time>2026-09-04T06:44:24Z</time>
</trkpt>
<trkpt lat="46.425290000" lon="-72.179470000">
<ele>0</ele>
<time>2026-09-04T06:44:25Z</time>
</trkpt>
<trkpt lat="46.424930000" lon="-72.179720000">
<ele>0</ele>
<time>2026-09-04T06:44:26Z</time>
</trkpt>
<trkpt lat="46.424130000" lon="-72.180170000">
<ele>0</ele>
<time>2026-09-04T06:44:27Z</time>
</trkpt>
<trkpt lat="46.423960000" lon="-72.180260000">
<ele>0</ele>
<time>2026-09-04T06:44:28Z</time>
</trkpt>
<trkpt lat="46.423460000" lon="-72.180470000">
<ele>0</ele>
<time>2026-09-04T06:44:29Z</time>
</trkpt>
<trkpt lat="46.422990000" lon="-72.180650000">
<ele>0</ele>
<time>2026-09-04T06:44:30Z</time>
</trkpt>
<trkpt lat="46.422370000" lon="-72.180820000">
<ele>0</ele>
<time>2026-09-04T06:44:31Z</time>
</trkpt>
<trkpt lat="46.420270000" lon="-72.181420000">
<ele>0</ele>
<time>2026-09-04T06:44:32Z</time>
</trkpt>
<trkpt lat="46.419660000" lon="-72.181610000">
<ele>0</ele>
<time>2026-09-04T06:44:33Z</time>
</trkpt>
<trkpt lat="46.418820000" lon="-72.181870000">
<ele>0</ele>
<time>2026-09-04T06:44:34Z</time>
</trkpt>
<trkpt lat="46.418290000" lon="-72.182130000">
<ele>0</ele>
<time>2026-09-04T06:44:35Z</time>
</trkpt>
<trkpt lat="46.417810000" lon="-72.182420000">
<ele>0</ele>
<time>2026-09-04T06:44:36Z</time>
</trkpt>
<trkpt lat="46.416320000" lon="-72.183350000">
<ele>0</ele>
<time>2026-09-04T06:44:37Z</time>
</trkpt>
<trkpt lat="46.415000000" lon="-72.184160000">
<ele>0</ele>
<time>2026-09-04T06:44:38Z</time>
</trkpt>
<trkpt lat="46.412520000" lon="-72.185710000">
<ele>0</ele>
<time>2026-09-04T06:44:39Z</time>
</trkpt>
<trkpt lat="46.411370000" lon="-72.186450000">
<ele>0</ele>
<time>2026-09-04T06:44:40Z</time>
</trkpt>
<trkpt lat="46.410530000" lon="-72.187010000">
<ele>0</ele>
<time>2026-09-04T06:44:41Z</time>
</trkpt>
<trkpt lat="46.410140000" lon="-72.187310000">
<ele>0</ele>
<time>2026-09-04T06:44:42Z</time>
</trkpt>
<trkpt lat="46.409860000" lon="-72.187630000">
<ele>0</ele>
<time>2026-09-04T06:44:43Z</time>
</trkpt>
<trkpt lat="46.409170000" lon="-72.188650000">
<ele>0</ele>
<time>2026-09-04T06:44:44Z</time>
</trkpt>
<trkpt lat="46.408920000" lon="-72.189030000">
<ele>0</ele>
<time>2026-09-04T06:44:45Z</time>
</trkpt>
<trkpt lat="46.408730000" lon="-72.189310000">
<ele>0</ele>
<time>2026-09-04T06:44:46Z</time>
</trkpt>
<trkpt lat="46.406990000" lon="-72.191950000">
<ele>0</ele>
<time>2026-09-04T06:44:47Z</time>
</trkpt>
<trkpt lat="46.405520000" lon="-72.194140000">
<ele>0</ele>
<time>2026-09-04T06:44:48Z</time>
</trkpt>
<trkpt lat="46.405150000" lon="-72.194620000">
<ele>0</ele>
<time>2026-09-04T06:44:49Z</time>
</trkpt>
<trkpt lat="46.404940000" lon="-72.194890000">
<ele>0</ele>
<time>2026-09-04T06:44:50Z</time>
</trkpt>
<trkpt lat="46.404610000" lon="-72.195210000">
<ele>0</ele>
<time>2026-09-04T06:44:51Z</time>
</trkpt>
<trkpt lat="46.404240000" lon="-72.195440000">
<ele>0</ele>
<time>2026-09-04T06:44:52Z</time>
</trkpt>
<trkpt lat="46.403000000" lon="-72.196220000">
<ele>0</ele>
<time>2026-09-04T06:44:53Z</time>
</trkpt>
<trkpt lat="46.402010000" lon="-72.196830000">
<ele>0</ele>
<time>2026-09-04T06:44:54Z</time>
</trkpt>
<trkpt lat="46.401830000" lon="-72.196950000">
<ele>0</ele>
<time>2026-09-04T06:44:55Z</time>
</trkpt>
<trkpt lat="46.401690000" lon="-72.197070000">
<ele>0</ele>
<time>2026-09-04T06:44:56Z</time>
</trkpt>
<trkpt lat="46.401380000" lon="-72.197350000">
<ele>0</ele>
<time>2026-09-04T06:44:57Z</time>
</trkpt>
<trkpt lat="46.399440000" lon="-72.199690000">
<ele>0</ele>
<time>2026-09-04T06:44:58Z</time>
</trkpt>
<trkpt lat="46.397670000" lon="-72.201880000">
<ele>0</ele>
<time>2026-09-04T06:44:59Z</time>
</trkpt>
<trkpt lat="46.394550000" lon="-72.205690000">
<ele>0</ele>
<time>2026-09-04T06:45:00Z</time>
</trkpt>
<trkpt lat="46.393730000" lon="-72.206690000">
<ele>0</ele>
<time>2026-09-04T06:45:01Z</time>
</trkpt>
<trkpt lat="46.392870000" lon="-72.207790000">
<ele>0</ele>
<time>2026-09-04T06:45:02Z</time>
</trkpt>
<trkpt lat="46.392050000" lon="-72.208650000">
<ele>0</ele>
<time>2026-09-04T06:45:03Z</time>
</trkpt>
<trkpt lat="46.391770000" lon="-72.208990000">
<ele>0</ele>
<time>2026-09-04T06:45:04Z</time>
</trkpt>
<trkpt lat="46.391280000" lon="-72.209570000">
<ele>0</ele>
<time>2026-09-04T06:45:05Z</time>
</trkpt>
<trkpt lat="46.391100000" lon="-72.209860000">
<ele>0</ele>
<time>2026-09-04T06:45:06Z</time>
</trkpt>
<trkpt lat="46.390940000" lon="-72.210110000">
<ele>0</ele>
<time>2026-09-04T06:45:07Z</time>
</trkpt>
<trkpt lat="46.390780000" lon="-72.210480000">
<ele>0</ele>
<time>2026-09-04T06:45:08Z</time>
</trkpt>
<trkpt lat="46.390340000" lon="-72.211910000">
<ele>0</ele>
<time>2026-09-04T06:45:09Z</time>
</trkpt>
<trkpt lat="46.390170000" lon="-72.212730000">
<ele>0</ele>
<time>2026-09-04T06:45:10Z</time>
</trkpt>
<trkpt lat="46.390100000" lon="-72.213160000">
<ele>0</ele>
<time>2026-09-04T06:45:11Z</time>
</trkpt>
<trkpt lat="46.390020000" lon="-72.213670000">
<ele>0</ele>
<time>2026-09-04T06:45:12Z</time>
</trkpt>
<trkpt lat="46.389950000" lon="-72.214160000">
<ele>0</ele>
<time>2026-09-04T06:45:13Z</time>
</trkpt>
<trkpt lat="46.389690000" lon="-72.215430000">
<ele>0</ele>
<time>2026-09-04T06:45:14Z</time>
</trkpt>
<trkpt lat="46.389580000" lon="-72.216090000">
<ele>0</ele>
<time>2026-09-04T06:45:15Z</time>
</trkpt>
<trkpt lat="46.389560000" lon="-72.216520000">
<ele>0</ele>
<time>2026-09-04T06:45:16Z</time>
</trkpt>
<trkpt lat="46.389590000" lon="-72.217230000">
<ele>0</ele>
<time>2026-09-04T06:45:17Z</time>
</trkpt>
<trkpt lat="46.389640000" lon="-72.219080000">
<ele>0</ele>
<time>2026-09-04T06:45:18Z</time>
</trkpt>
<trkpt lat="46.389630000" lon="-72.219470000">
<ele>0</ele>
<time>2026-09-04T06:45:19Z</time>
</trkpt>
<trkpt lat="46.389480000" lon="-72.220330000">
<ele>0</ele>
<time>2026-09-04T06:45:20Z</time>
</trkpt>
<trkpt lat="46.389420000" lon="-72.220580000">
<ele>0</ele>
<time>2026-09-04T06:45:21Z</time>
</trkpt>
<trkpt lat="46.388930000" lon="-72.222260000">
<ele>0</ele>
<time>2026-09-04T06:45:22Z</time>
</trkpt>
<trkpt lat="46.388060000" lon="-72.225130000">
<ele>0</ele>
<time>2026-09-04T06:45:23Z</time>
</trkpt>
<trkpt lat="46.387910000" lon="-72.225600000">
<ele>0</ele>
<time>2026-09-04T06:45:24Z</time>
</trkpt>
<trkpt lat="46.387500000" lon="-72.227050000">
<ele>0</ele>
<time>2026-09-04T06:45:25Z</time>
</trkpt>
<trkpt lat="46.386820000" lon="-72.229480000">
<ele>0</ele>
<time>2026-09-04T06:45:26Z</time>
</trkpt>
<trkpt lat="46.386540000" lon="-72.230180000">
<ele>0</ele>
<time>2026-09-04T06:45:27Z</time>
</trkpt>
<trkpt lat="46.385600000" lon="-72.232230000">
<ele>0</ele>
<time>2026-09-04T06:45:28Z</time>
</trkpt>
<trkpt lat="46.384080000" lon="-72.235580000">
<ele>0</ele>
<time>2026-09-04T06:45:29Z</time>
</trkpt>
<trkpt lat="46.383310000" lon="-72.237320000">
<ele>0</ele>
<time>2026-09-04T06:45:30Z</time>
</trkpt>
<trkpt lat="46.382720000" lon="-72.238950000">
<ele>0</ele>
<time>2026-09-04T06:45:31Z</time>
</trkpt>
<trkpt lat="46.381470000" lon="-72.242420000">
<ele>0</ele>
<time>2026-09-04T06:45:32Z</time>
</trkpt>
<trkpt lat="46.380600000" lon="-72.244900000">
<ele>0</ele>
<time>2026-09-04T06:45:33Z</time>
</trkpt>
<trkpt lat="46.379710000" lon="-72.247460000">
<ele>0</ele>
<time>2026-09-04T06:45:34Z</time>
</trkpt>
<trkpt lat="46.378570000" lon="-72.250580000">
<ele>0</ele>
<time>2026-09-04T06:45:35Z</time>
</trkpt>
<trkpt lat="46.378500000" lon="-72.250950000">
<ele>0</ele>
<time>2026-09-04T06:45:36Z</time>
</trkpt>
<trkpt lat="46.378480000" lon="-72.251210000">
<ele>0</ele>
<time>2026-09-04T06:45:37Z</time>
</trkpt>
<trkpt lat="46.378230000" lon="-72.254580000">
<ele>0</ele>
<time>2026-09-04T06:45:38Z</time>
</trkpt>
<trkpt lat="46.377740000" lon="-72.261320000">
<ele>0</ele>
<time>2026-09-04T06:45:39Z</time>
</trkpt>
<trkpt lat="46.377630000" lon="-72.263660000">
<ele>0</ele>
<time>2026-09-04T06:45:40Z</time>
</trkpt>
<trkpt lat="46.377530000" lon="-72.266270000">
<ele>0</ele>
<time>2026-09-04T06:45:41Z</time>
</trkpt>
<trkpt lat="46.377470000" lon="-72.267700000">
<ele>0</ele>
<time>2026-09-04T06:45:42Z</time>
</trkpt>
<trkpt lat="46.377320000" lon="-72.269900000">
<ele>0</ele>
<time>2026-09-04T06:45:43Z</time>
</trkpt>
<trkpt lat="46.377190000" lon="-72.271710000">
<ele>0</ele>
<time>2026-09-04T06:45:44Z</time>
</trkpt>
<trkpt lat="46.377090000" lon="-72.274100000">
<ele>0</ele>
<time>2026-09-04T06:45:45Z</time>
</trkpt>
<trkpt lat="46.377010000" lon="-72.274710000">
<ele>0</ele>
<time>2026-09-04T06:45:46Z</time>
</trkpt>
<trkpt lat="46.376900000" lon="-72.275050000">
<ele>0</ele>
<time>2026-09-04T06:45:47Z</time>
</trkpt>
<trkpt lat="46.376520000" lon="-72.275940000">
<ele>0</ele>
<time>2026-09-04T06:45:48Z</time>
</trkpt>
<trkpt lat="46.375450000" lon="-72.278350000">
<ele>0</ele>
<time>2026-09-04T06:45:49Z</time>
</trkpt>
<trkpt lat="46.375020000" lon="-72.279490000">
<ele>0</ele>
<time>2026-09-04T06:45:50Z</time>
</trkpt>
<trkpt lat="46.373910000" lon="-72.282060000">
<ele>0</ele>
<time>2026-09-04T06:45:51Z</time>
</trkpt>
<trkpt lat="46.373350000" lon="-72.283400000">
<ele>0</ele>
<time>2026-09-04T06:45:52Z</time>
</trkpt>
<trkpt lat="46.372850000" lon="-72.284600000">
<ele>0</ele>
<time>2026-09-04T06:45:53Z</time>
</trkpt>
<trkpt lat="46.372390000" lon="-72.285610000">
<ele>0</ele>
<time>2026-09-04T06:45:54Z</time>
</trkpt>
<trkpt lat="46.371220000" lon="-72.287910000">
<ele>0</ele>
<time>2026-09-04T06:45:55Z</time>
</trkpt>
<trkpt lat="46.369700000" lon="-72.290830000">
<ele>0</ele>
<time>2026-09-04T06:45:56Z</time>
</trkpt>
<trkpt lat="46.369310000" lon="-72.291590000">
<ele>0</ele>
<time>2026-09-04T06:45:57Z</time>
</trkpt>
<trkpt lat="46.368340000" lon="-72.293580000">
<ele>0</ele>
<time>2026-09-04T06:45:58Z</time>
</trkpt>
<trkpt lat="46.367130000" lon="-72.296050000">
<ele>0</ele>
<time>2026-09-04T06:45:59Z</time>
</trkpt>
<trkpt lat="46.367840000" lon="-72.296850000">
<ele>0</ele>
<time>2026-09-04T06:46:00Z</time>
</trkpt>
<trkpt lat="46.368000000" lon="-72.297040000">
<ele>0</ele>
<time>2026-09-04T06:46:01Z</time>
</trkpt>
<trkpt lat="46.368000000" lon="-72.297040000">
<ele>0</ele>
<time>2026-09-04T06:46:02Z</time>
</trkpt>
<trkpt lat="46.368190000" lon="-72.297260000">
<ele>0</ele>
<time>2026-09-04T06:46:03Z</time>
</trkpt>
<trkpt lat="46.368420000" lon="-72.297610000">
<ele>0</ele>
<time>2026-09-04T06:46:04Z</time>
</trkpt>
<trkpt lat="46.368580000" lon="-72.298010000">
<ele>0</ele>
<time>2026-09-04T06:46:05Z</time>
</trkpt>
<trkpt lat="46.368710000" lon="-72.298410000">
<ele>0</ele>
<time>2026-09-04T06:46:06Z</time>
</trkpt>
<trkpt lat="46.370400000" lon="-72.305330000">
<ele>0</ele>
<time>2026-09-04T06:46:07Z</time>
</trkpt>
<trkpt lat="46.371240000" lon="-72.308770000">
<ele>0</ele>
<time>2026-09-04T06:46:08Z</time>
</trkpt>
<trkpt lat="46.371970000" lon="-72.311710000">
<ele>0</ele>
<time>2026-09-04T06:46:09Z</time>
</trkpt>
<trkpt lat="46.372670000" lon="-72.314400000">
<ele>0</ele>
<time>2026-09-04T06:46:10Z</time>
</trkpt>
<trkpt lat="46.374120000" lon="-72.320020000">
<ele>0</ele>
<time>2026-09-04T06:46:11Z</time>
</trkpt>
<trkpt lat="46.374850000" lon="-72.322900000">
<ele>0</ele>
<time>2026-09-04T06:46:12Z</time>
</trkpt>
<trkpt lat="46.374960000" lon="-72.323180000">
<ele>0</ele>
<time>2026-09-04T06:46:13Z</time>
</trkpt>
<trkpt lat="46.375050000" lon="-72.323320000">
<ele>0</ele>
<time>2026-09-04T06:46:14Z</time>
</trkpt>
<trkpt lat="46.375220000" lon="-72.323490000">
<ele>0</ele>
<time>2026-09-04T06:46:15Z</time>
</trkpt>
<trkpt lat="46.376210000" lon="-72.324100000">
<ele>0</ele>
<time>2026-09-04T06:46:16Z</time>
</trkpt>
<trkpt lat="46.376530000" lon="-72.324260000">
<ele>0</ele>
<time>2026-09-04T06:46:17Z</time>
</trkpt>
<trkpt lat="46.377550000" lon="-72.324780000">
<ele>0</ele>
<time>2026-09-04T06:46:18Z</time>
</trkpt>
<trkpt lat="46.378230000" lon="-72.325110000">
<ele>0</ele>
<time>2026-09-04T06:46:19Z</time>
</trkpt>
<trkpt lat="46.378410000" lon="-72.325250000">
<ele>0</ele>
<time>2026-09-04T06:46:20Z</time>
</trkpt>
<trkpt lat="46.378590000" lon="-72.325520000">
<ele>0</ele>
<time>2026-09-04T06:46:21Z</time>
</trkpt>
<trkpt lat="46.378710000" lon="-72.325820000">
<ele>0</ele>
<time>2026-09-04T06:46:22Z</time>
</trkpt>
<trkpt lat="46.378910000" lon="-72.326550000">
<ele>0</ele>
<time>2026-09-04T06:46:23Z</time>
</trkpt>
<trkpt lat="46.379180000" lon="-72.327400000">
<ele>0</ele>
<time>2026-09-04T06:46:24Z</time>
</trkpt>
<trkpt lat="46.379430000" lon="-72.327910000">
<ele>0</ele>
<time>2026-09-04T06:46:25Z</time>
</trkpt>
<trkpt lat="46.379550000" lon="-72.328110000">
<ele>0</ele>
<time>2026-09-04T06:46:26Z</time>
</trkpt>
<trkpt lat="46.380010000" lon="-72.328670000">
<ele>0</ele>
<time>2026-09-04T06:46:27Z</time>
</trkpt>
<trkpt lat="46.380300000" lon="-72.329020000">
<ele>0</ele>
<time>2026-09-04T06:46:28Z</time>
</trkpt>
<trkpt lat="46.380510000" lon="-72.329320000">
<ele>0</ele>
<time>2026-09-04T06:46:29Z</time>
</trkpt>
<trkpt lat="46.380830000" lon="-72.329990000">
<ele>0</ele>
<time>2026-09-04T06:46:30Z</time>
</trkpt>
<trkpt lat="46.381020000" lon="-72.330650000">
<ele>0</ele>
<time>2026-09-04T06:46:31Z</time>
</trkpt>
<trkpt lat="46.381150000" lon="-72.331140000">
<ele>0</ele>
<time>2026-09-04T06:46:32Z</time>
</trkpt>
<trkpt lat="46.381280000" lon="-72.331650000">
<ele>0</ele>
<time>2026-09-04T06:46:33Z</time>
</trkpt>
<trkpt lat="46.381400000" lon="-72.332390000">
<ele>0</ele>
<time>2026-09-04T06:46:34Z</time>
</trkpt>
<trkpt lat="46.381490000" lon="-72.332930000">
<ele>0</ele>
<time>2026-09-04T06:46:35Z</time>
</trkpt>
<trkpt lat="46.381550000" lon="-72.333100000">
<ele>0</ele>
<time>2026-09-04T06:46:36Z</time>
</trkpt>
<trkpt lat="46.381670000" lon="-72.333380000">
<ele>0</ele>
<time>2026-09-04T06:46:37Z</time>
</trkpt>
<trkpt lat="46.381780000" lon="-72.333570000">
<ele>0</ele>
<time>2026-09-04T06:46:38Z</time>
</trkpt>
<trkpt lat="46.382060000" lon="-72.333950000">
<ele>0</ele>
<time>2026-09-04T06:46:39Z</time>
</trkpt>
<trkpt lat="46.382310000" lon="-72.334230000">
<ele>0</ele>
<time>2026-09-04T06:46:40Z</time>
</trkpt>
<trkpt lat="46.382800000" lon="-72.334670000">
<ele>0</ele>
<time>2026-09-04T06:46:41Z</time>
</trkpt>
<trkpt lat="46.382670000" lon="-72.334930000">
<ele>0</ele>
<time>2026-09-04T06:46:42Z</time>
</trkpt>
<trkpt lat="46.382670000" lon="-72.334930000">
<ele>0</ele>
<time>2026-09-04T06:46:43Z</time>
</trkpt>
<trkpt lat="46.382640000" lon="-72.335010000">
<ele>0</ele>
<time>2026-09-04T06:46:44Z</time>
</trkpt>
<trkpt lat="46.382580000" lon="-72.335370000">
<ele>0</ele>
<time>2026-09-04T06:46:45Z</time>
</trkpt>
<trkpt lat="46.382400000" lon="-72.336380000">
<ele>0</ele>
<time>2026-09-04T06:46:46Z</time>
</trkpt>
<trkpt lat="46.382360000" lon="-72.336450000">
<ele>0</ele>
<time>2026-09-04T06:46:47Z</time>
</trkpt>
<trkpt lat="46.382290000" lon="-72.336480000">
<ele>0</ele>
<time>2026-09-04T06:46:48Z</time>
</trkpt>
<trkpt lat="46.382270000" lon="-72.336480000">
<ele>0</ele>
<time>2026-09-04T06:46:49Z</time>
</trkpt>
<trkpt lat="46.382270000" lon="-72.336480000">
<ele>0</ele>
<time>2026-09-04T06:46:50Z</time>
</trkpt>
<trkpt lat="46.382160000" lon="-72.336460000">
<ele>0</ele>
<time>2026-09-04T06:46:51Z</time>
</trkpt>
<trkpt lat="46.381840000" lon="-72.336350000">
<ele>0</ele>
<time>2026-09-04T06:46:52Z</time>
</trkpt>
<trkpt lat="46.381850000" lon="-72.336380000">
<ele>0</ele>
<time>2026-09-04T06:46:53Z</time>
</trkpt>
<trkpt lat="46.381850000" lon="-72.336490000">
<ele>0</ele>
<time>2026-09-04T06:46:54Z</time>
</trkpt>
<trkpt lat="46.381780000" lon="-72.337120000">
<ele>0</ele>
<time>2026-09-04T06:46:55Z</time>
</trkpt>
<trkpt lat="46.381780000" lon="-72.337120000">
<ele>0</ele>
<time>2026-09-04T06:46:56Z</time>
</trkpt>
<trkpt lat="46.381370000" lon="-72.340520000">
<ele>0</ele>
<time>2026-09-04T06:46:57Z</time>
</trkpt>
<trkpt lat="46.381040000" lon="-72.343960000">
<ele>0</ele>
<time>2026-09-04T06:46:58Z</time>
</trkpt>
<trkpt lat="46.380520000" lon="-72.349420000">
<ele>0</ele>
<time>2026-09-04T06:46:59Z</time>
</trkpt>
<trkpt lat="46.380390000" lon="-72.350730000">
<ele>0</ele>
<time>2026-09-04T06:47:00Z</time>
</trkpt>
<trkpt lat="46.380310000" lon="-72.351290000">
<ele>0</ele>
<time>2026-09-04T06:47:01Z</time>
</trkpt>
<trkpt lat="46.380180000" lon="-72.352100000">
<ele>0</ele>
<time>2026-09-04T06:47:02Z</time>
</trkpt>
<trkpt lat="46.380080000" lon="-72.352540000">
<ele>0</ele>
<time>2026-09-04T06:47:03Z</time>
</trkpt>
<trkpt lat="46.379950000" lon="-72.352960000">
<ele>0</ele>
<time>2026-09-04T06:47:04Z</time>
</trkpt>
<trkpt lat="46.379670000" lon="-72.353540000">
<ele>0</ele>
<time>2026-09-04T06:47:05Z</time>
</trkpt>
<trkpt lat="46.378770000" lon="-72.355290000">
<ele>0</ele>
<time>2026-09-04T06:47:06Z</time>
</trkpt>
<trkpt lat="46.378540000" lon="-72.355830000">
<ele>0</ele>
<time>2026-09-04T06:47:07Z</time>
</trkpt>
<trkpt lat="46.378320000" lon="-72.356380000">
<ele>0</ele>
<time>2026-09-04T06:47:08Z</time>
</trkpt>
<trkpt lat="46.378080000" lon="-72.357280000">
<ele>0</ele>
<time>2026-09-04T06:47:09Z</time>
</trkpt>
<trkpt lat="46.377940000" lon="-72.357950000">
<ele>0</ele>
<time>2026-09-04T06:47:10Z</time>
</trkpt>
<trkpt lat="46.377720000" lon="-72.359220000">
<ele>0</ele>
<time>2026-09-04T06:47:11Z</time>
</trkpt>
<trkpt lat="46.377620000" lon="-72.359720000">
<ele>0</ele>
<time>2026-09-04T06:47:12Z</time>
</trkpt>
<trkpt lat="46.377540000" lon="-72.359960000">
<ele>0</ele>
<time>2026-09-04T06:47:13Z</time>
</trkpt>
<trkpt lat="46.374580000" lon="-72.366600000">
<ele>0</ele>
<time>2026-09-04T06:47:14Z</time>
</trkpt>
<trkpt lat="46.372940000" lon="-72.370210000">
<ele>0</ele>
<time>2026-09-04T06:47:15Z</time>
</trkpt>
<trkpt lat="46.372800000" lon="-72.370530000">
<ele>0</ele>
<time>2026-09-04T06:47:16Z</time>
</trkpt>
<trkpt lat="46.372600000" lon="-72.370870000">
<ele>0</ele>
<time>2026-09-04T06:47:17Z</time>
</trkpt>
<trkpt lat="46.372330000" lon="-72.371150000">
<ele>0</ele>
<time>2026-09-04T06:47:18Z</time>
</trkpt>
<trkpt lat="46.372080000" lon="-72.371370000">
<ele>0</ele>
<time>2026-09-04T06:47:19Z</time>
</trkpt>
<trkpt lat="46.372020000" lon="-72.371390000">
<ele>0</ele>
<time>2026-09-04T06:47:20Z</time>
</trkpt>
<trkpt lat="46.371600000" lon="-72.371510000">
<ele>0</ele>
<time>2026-09-04T06:47:21Z</time>
</trkpt>
<trkpt lat="46.371130000" lon="-72.371700000">
<ele>0</ele>
<time>2026-09-04T06:47:22Z</time>
</trkpt>
<trkpt lat="46.370640000" lon="-72.371900000">
<ele>0</ele>
<time>2026-09-04T06:47:23Z</time>
</trkpt>
<trkpt lat="46.370440000" lon="-72.372020000">
<ele>0</ele>
<time>2026-09-04T06:47:24Z</time>
</trkpt>
<trkpt lat="46.370260000" lon="-72.372210000">
<ele>0</ele>
<time>2026-09-04T06:47:25Z</time>
</trkpt>
<trkpt lat="46.370040000" lon="-72.372530000">
<ele>0</ele>
<time>2026-09-04T06:47:26Z</time>
</trkpt>
<trkpt lat="46.369410000" lon="-72.373960000">
<ele>0</ele>
<time>2026-09-04T06:47:27Z</time>
</trkpt>
<trkpt lat="46.368980000" lon="-72.374910000">
<ele>0</ele>
<time>2026-09-04T06:47:28Z</time>
</trkpt>
<trkpt lat="46.368730000" lon="-72.375500000">
<ele>0</ele>
<time>2026-09-04T06:47:29Z</time>
</trkpt>
<trkpt lat="46.368610000" lon="-72.376010000">
<ele>0</ele>
<time>2026-09-04T06:47:30Z</time>
</trkpt>
<trkpt lat="46.368580000" lon="-72.376370000">
<ele>0</ele>
<time>2026-09-04T06:47:31Z</time>
</trkpt>
<trkpt lat="46.368590000" lon="-72.376930000">
<ele>0</ele>
<time>2026-09-04T06:47:32Z</time>
</trkpt>
<trkpt lat="46.368770000" lon="-72.378260000">
<ele>0</ele>
<time>2026-09-04T06:47:33Z</time>
</trkpt>
<trkpt lat="46.368800000" lon="-72.378650000">
<ele>0</ele>
<time>2026-09-04T06:47:34Z</time>
</trkpt>
<trkpt lat="46.368790000" lon="-72.379080000">
<ele>0</ele>
<time>2026-09-04T06:47:35Z</time>
</trkpt>
<trkpt lat="46.368720000" lon="-72.379530000">
<ele>0</ele>
<time>2026-09-04T06:47:36Z</time>
</trkpt>
<trkpt lat="46.368600000" lon="-72.379930000">
<ele>0</ele>
<time>2026-09-04T06:47:37Z</time>
</trkpt>
<trkpt lat="46.368400000" lon="-72.380400000">
<ele>0</ele>
<time>2026-09-04T06:47:38Z</time>
</trkpt>
<trkpt lat="46.363400000" lon="-72.391550000">
<ele>0</ele>
<time>2026-09-04T06:47:39Z</time>
</trkpt>
<trkpt lat="46.363180000" lon="-72.392050000">
<ele>0</ele>
<time>2026-09-04T06:47:40Z</time>
</trkpt>
<trkpt lat="46.363430000" lon="-72.392260000">
<ele>0</ele>
<time>2026-09-04T06:47:41Z</time>
</trkpt>
<trkpt lat="46.363430000" lon="-72.392260000">
<ele>0</ele>
<time>2026-09-04T06:47:42Z</time>
</trkpt>
<trkpt lat="46.364190000" lon="-72.392940000">
<ele>0</ele>
<time>2026-09-04T06:47:43Z</time>
</trkpt>
<trkpt lat="46.366540000" lon="-72.395120000">
<ele>0</ele>
<time>2026-09-04T06:47:44Z</time>
</trkpt>
<trkpt lat="46.369140000" lon="-72.397520000">
<ele>0</ele>
<time>2026-09-04T06:47:45Z</time>
</trkpt>
<trkpt lat="46.370730000" lon="-72.399040000">
<ele>0</ele>
<time>2026-09-04T06:47:46Z</time>
</trkpt>
<trkpt lat="46.370530000" lon="-72.399490000">
<ele>0</ele>
<time>2026-09-04T06:47:47Z</time>
</trkpt>
<trkpt lat="46.370530000" lon="-72.399490000">
<ele>0</ele>
<time>2026-09-04T06:47:48Z</time>
</trkpt>
<trkpt lat="46.367520000" lon="-72.406200000">
<ele>0</ele>
<time>2026-09-04T06:47:49Z</time>
</trkpt>
<trkpt lat="46.366760000" lon="-72.407940000">
<ele>0</ele>
<time>2026-09-04T06:47:50Z</time>
</trkpt>
<trkpt lat="46.359760000" lon="-72.423810000">
<ele>0</ele>
<time>2026-09-04T06:47:51Z</time>
</trkpt>
<trkpt lat="46.359460000" lon="-72.424400000">
<ele>0</ele>
<time>2026-09-04T06:47:52Z</time>
</trkpt>
<trkpt lat="46.358750000" lon="-72.425770000">
<ele>0</ele>
<time>2026-09-04T06:47:53Z</time>
</trkpt>
<trkpt lat="46.358620000" lon="-72.425940000">
<ele>0</ele>
<time>2026-09-04T06:47:54Z</time>
</trkpt>
<trkpt lat="46.358500000" lon="-72.426050000">
<ele>0</ele>
<time>2026-09-04T06:47:55Z</time>
</trkpt>
<trkpt lat="46.358340000" lon="-72.426200000">
<ele>0</ele>
<time>2026-09-04T06:47:56Z</time>
</trkpt>
<trkpt lat="46.358040000" lon="-72.426400000">
<ele>0</ele>
<time>2026-09-04T06:47:57Z</time>
</trkpt>
<trkpt lat="46.357690000" lon="-72.426580000">
<ele>0</ele>
<time>2026-09-04T06:47:58Z</time>
</trkpt>
<trkpt lat="46.357270000" lon="-72.426740000">
<ele>0</ele>
<time>2026-09-04T06:47:59Z</time>
</trkpt>
<trkpt lat="46.356820000" lon="-72.426970000">
<ele>0</ele>
<time>2026-09-04T06:48:00Z</time>
</trkpt>
<trkpt lat="46.356440000" lon="-72.427240000">
<ele>0</ele>
<time>2026-09-04T06:48:01Z</time>
</trkpt>
<trkpt lat="46.356180000" lon="-72.427470000">
<ele>0</ele>
<time>2026-09-04T06:48:02Z</time>
</trkpt>
<trkpt lat="46.355800000" lon="-72.427900000">
<ele>0</ele>
<time>2026-09-04T06:48:03Z</time>
</trkpt>
<trkpt lat="46.354840000" lon="-72.429380000">
<ele>0</ele>
<time>2026-09-04T06:48:04Z</time>
</trkpt>
<trkpt lat="46.353510000" lon="-72.431430000">
<ele>0</ele>
<time>2026-09-04T06:48:05Z</time>
</trkpt>
<trkpt lat="46.352370000" lon="-72.433210000">
<ele>0</ele>
<time>2026-09-04T06:48:06Z</time>
</trkpt>
<trkpt lat="46.352200000" lon="-72.433420000">
<ele>0</ele>
<time>2026-09-04T06:48:07Z</time>
</trkpt>
<trkpt lat="46.351700000" lon="-72.433980000">
<ele>0</ele>
<time>2026-09-04T06:48:08Z</time>
</trkpt>
<trkpt lat="46.351370000" lon="-72.434280000">
<ele>0</ele>
<time>2026-09-04T06:48:09Z</time>
</trkpt>
<trkpt lat="46.350030000" lon="-72.435560000">
<ele>0</ele>
<time>2026-09-04T06:48:10Z</time>
</trkpt>
<trkpt lat="46.349390000" lon="-72.436030000">
<ele>0</ele>
<time>2026-09-04T06:48:11Z</time>
</trkpt>
<trkpt lat="46.349150000" lon="-72.436170000">
<ele>0</ele>
<time>2026-09-04T06:48:12Z</time>
</trkpt>
<trkpt lat="46.348930000" lon="-72.436250000">
<ele>0</ele>
<time>2026-09-04T06:48:13Z</time>
</trkpt>
<trkpt lat="46.348770000" lon="-72.435860000">
<ele>0</ele>
<time>2026-09-04T06:48:14Z</time>
</trkpt>
<trkpt lat="46.348770000" lon="-72.435860000">
<ele>0</ele>
<time>2026-09-04T06:48:15Z</time>
</trkpt>
<trkpt lat="46.348730000" lon="-72.435710000">
<ele>0</ele>
<time>2026-09-04T06:48:16Z</time>
</trkpt>
<trkpt lat="46.348660000" lon="-72.435290000">
<ele>0</ele>
<time>2026-09-04T06:48:17Z</time>
</trkpt>
<trkpt lat="46.348590000" lon="-72.434940000">
<ele>0</ele>
<time>2026-09-04T06:48:18Z</time>
</trkpt>
<trkpt lat="46.348570000" lon="-72.434830000">
<ele>0</ele>
<time>2026-09-04T06:48:19Z</time>
</trkpt>
<trkpt lat="46.348520000" lon="-72.434860000">
<ele>0</ele>
<time>2026-09-04T06:48:20Z</time>
</trkpt>
</trkseg>
</trk>
</gpx>
